GTI90 YBBN-ZSZS

Flight info

Callsign GTI90
Flight time 8h 49m
Altitude 32000
Route BIXAD DCT GUDSO Q24 KELPI B220 PY B462 KAPPU R204 KALIN/N0498F340 R204 KEITH R595 SALVA/N0488F360 R595 MJC DCT ENTOK DCT MAMOD DCT EMRET/K0902S1100 DCT HSN
Aircraft B77L/H-SDE1E2E3FGHIJ2J3J4J5M1RWXY/LB1D1

Departure

Time 2026-05-05 17:57
Airport Brisbane International Airport (YBBN)

Arrival

Time 2026-05-06 02:46
Airport Zhoushan Putuoshan International Airport (ZSZS)
Time Latitude Longitude Altitude Speed Heading
2026-05-05 17:23 -27.41853 153.09990 26 ft 0 kts 136°
2026-05-05 17:39 -27.41836 153.09973 31 ft 4 kts 139°
2026-05-05 17:39 -27.41821 153.09956 31 ft 3 kts 128°
2026-05-05 17:39 -27.41805 153.09931 31 ft 4 kts 119°
2026-05-05 17:40 -27.41796 153.09904 31 ft 4 kts 88°
2026-05-05 17:40 -27.41800 153.09886 31 ft 0 kts 46°
2026-05-05 17:43 -27.41786 153.09903 31 ft 9 kts 46°
2026-05-05 17:43 -27.41736 153.09961 29 ft 9 kts 45°
2026-05-05 17:43 -27.41688 153.09985 30 ft 8 kts 346°
2026-05-05 17:44 -27.41641 153.09948 28 ft 8 kts 317°
2026-05-05 17:44 -27.41600 153.09904 31 ft 8 kts 316°
2026-05-05 17:44 -27.41554 153.09867 30 ft 8 kts 342°
2026-05-05 17:44 -27.41503 153.09889 26 ft 8 kts 40°
2026-05-05 17:45 -27.41462 153.09935 30 ft 8 kts 46°
2026-05-05 17:45 -27.41423 153.09981 30 ft 8 kts 46°
2026-05-05 17:45 -27.41384 153.10027 28 ft 8 kts 46°
2026-05-05 17:45 -27.41327 153.10093 29 ft 19 kts 46°
2026-05-05 17:46 -27.41234 153.10202 30 ft 19 kts 46°
2026-05-05 17:46 -27.41141 153.10312 30 ft 19 kts 46°
2026-05-05 17:46 -27.41047 153.10421 29 ft 19 kts 46°
2026-05-05 17:46 -27.40954 153.10530 29 ft 19 kts 47°
2026-05-05 17:47 -27.40890 153.10662 29 ft 19 kts 76°
2026-05-05 17:47 -27.40894 153.10804 29 ft 15 kts 105°
2026-05-05 17:47 -27.40934 153.10916 29 ft 15 kts 106°
2026-05-05 17:47 -27.40922 153.11031 28 ft 15 kts 63°
2026-05-05 17:48 -27.40851 153.11121 30 ft 15 kts 40°
2026-05-05 17:48 -27.40759 153.11182 29 ft 15 kts 27°
2026-05-05 17:48 -27.40652 153.11243 29 ft 21 kts 27°
2026-05-05 17:48 -27.40516 153.11321 31 ft 22 kts 27°
2026-05-05 17:49 -27.40379 153.11400 27 ft 22 kts 27°
2026-05-05 17:49 -27.40243 153.11478 31 ft 22 kts 27°
2026-05-05 17:49 -27.40106 153.11556 27 ft 22 kts 27°
2026-05-05 17:49 -27.39970 153.11634 31 ft 22 kts 26°
2026-05-05 17:50 -27.39835 153.11711 29 ft 22 kts 27°
2026-05-05 17:50 -27.39698 153.11790 31 ft 22 kts 27°
2026-05-05 17:50 -27.39562 153.11868 31 ft 22 kts 27°
2026-05-05 17:50 -27.39425 153.11946 30 ft 22 kts 27°
2026-05-05 17:51 -27.39288 153.12024 29 ft 22 kts 27°
2026-05-05 17:51 -27.39152 153.12102 31 ft 22 kts 27°
2026-05-05 17:51 -27.39015 153.12180 29 ft 22 kts 27°
2026-05-05 17:51 -27.38880 153.12257 28 ft 22 kts 27°
2026-05-05 17:52 -27.38744 153.12335 30 ft 22 kts 26°
2026-05-05 17:52 -27.38607 153.12413 31 ft 22 kts 27°
2026-05-05 17:52 -27.38471 153.12491 30 ft 22 kts 27°
2026-05-05 17:52 -27.38334 153.12569 30 ft 22 kts 27°
2026-05-05 17:53 -27.38197 153.12647 30 ft 22 kts 27°
2026-05-05 17:53 -27.38061 153.12726 30 ft 22 kts 27°
2026-05-05 17:53 -27.37925 153.12804 31 ft 22 kts 27°
2026-05-05 17:53 -27.37790 153.12881 29 ft 22 kts 27°
2026-05-05 17:54 -27.37654 153.12959 30 ft 22 kts 27°
2026-05-05 17:54 -27.37517 153.13037 29 ft 22 kts 27°
2026-05-05 17:54 -27.37383 153.13114 30 ft 17 kts 26°
2026-05-05 17:54 -27.37303 153.13159 29 ft 10 kts 26°
2026-05-05 17:55 -27.37271 153.13213 30 ft 9 kts 93°
2026-05-05 17:55 -27.37292 153.13279 30 ft 9 kts 115°
2026-05-05 17:55 -27.37321 153.13342 31 ft 9 kts 120°
2026-05-05 17:55 -27.37362 153.13397 25 ft 10 kts 140°
2026-05-05 17:56 -27.37453 153.13429 27 ft 19 kts 184°
2026-05-05 17:56 -27.37652 153.13325 31 ft 57 kts 207°
2026-05-05 17:56 -27.38215 153.13003 27 ft 122 kts 207°
2026-05-05 17:56 -27.39144 153.12472 26 ft 175 kts 207°
2026-05-05 17:57 -27.40279 153.11818 392 ft 184 kts 207°
2026-05-05 17:57 -27.41431 153.11154 897 ft 190 kts 207°
2026-05-05 17:57 -27.42617 153.10472 1404 ft 193 kts 206°
2026-05-05 17:57 -27.43856 153.09756 1721 ft 209 kts 205°
2026-05-05 17:58 -27.45203 153.08985 2035 ft 225 kts 205°
2026-05-05 17:58 -27.46651 153.08163 2406 ft 239 kts 205°
2026-05-05 17:58 -27.48033 153.07116 2798 ft 251 kts 227°
2026-05-05 17:58 -27.48815 153.05337 3261 ft 260 kts 263°
2026-05-05 17:59 -27.48780 153.03312 3883 ft 258 kts 274°
2026-05-05 17:59 -27.48598 153.01284 4421 ft 265 kts 276°
2026-05-05 17:59 -27.48349 152.99163 4748 ft 281 kts 277°
2026-05-05 17:59 -27.48107 152.96975 5412 ft 279 kts 274°
2026-05-05 18:00 -27.47762 152.94888 6207 ft 271 kts 296°
2026-05-05 18:00 -27.46559 152.93290 6712 ft 272 kts 331°
2026-05-05 18:00 -27.44782 152.92699 7133 ft 276 kts
2026-05-05 18:00 -27.42854 152.92918 7450 ft 283 kts
2026-05-05 18:01 -27.40887 152.93210 7966 ft 287 kts
2026-05-05 18:01 -27.38902 152.93502 8620 ft 288 kts
2026-05-05 18:01 -27.36915 152.93801 9273 ft 289 kts
2026-05-05 18:01 -27.34920 152.94106 9905 ft 290 kts
2026-05-05 18:02 -27.32905 152.94416 10379 ft 297 kts
2026-05-05 18:02 -27.30786 152.94742 10513 ft 317 kts
2026-05-05 18:02 -27.28532 152.95089 10676 ft 337 kts
2026-05-05 18:02 -27.26147 152.95455 10828 ft 356 kts
2026-05-05 18:03 -27.23665 152.95836 11070 ft 371 kts
2026-05-05 18:03 -27.21074 152.96234 11531 ft 380 kts
2026-05-05 18:03 -27.18435 152.96639 12098 ft 385 kts
2026-05-05 18:03 -27.15769 152.97047 12775 ft 387 kts
2026-05-05 18:04 -27.13091 152.97457 13451 ft 390 kts
2026-05-05 18:04 -27.10396 152.97869 14060 ft 393 kts
2026-05-05 18:04 -27.07677 152.98285 14648 ft 395 kts
2026-05-05 18:04 -27.04958 152.98701 15311 ft 394 kts
2026-05-05 18:05 -27.02243 152.99116 16000 ft 393 kts
2026-05-05 18:05 -26.99572 152.99524 16662 ft 393 kts
2026-05-05 18:05 -26.96864 152.99937 17299 ft 393 kts
2026-05-05 18:05 -26.94147 153.00352 17922 ft 394 kts
2026-05-05 18:06 -26.91418 153.00766 18079 ft 398 kts
2026-05-05 18:06 -26.89603 153.01042 18078 ft 396 kts
2026-05-05 18:06 -26.85959 153.01599 18071 ft 394 kts
2026-05-05 18:06 -26.83238 153.02014 18074 ft 394 kts
2026-05-05 18:07 -26.80517 153.02428 18080 ft 395 kts
2026-05-05 18:07 -26.77790 153.02843 18076 ft 395 kts
2026-05-05 18:07 -26.75101 153.03251 18082 ft 396 kts
2026-05-05 18:07 -26.72366 153.03666 18327 ft 398 kts
2026-05-05 18:08 -26.69623 153.04083 18905 ft 397 kts
2026-05-05 18:08 -26.66879 153.04501 19432 ft 398 kts
2026-05-05 18:08 -26.64121 153.04918 19879 ft 402 kts
2026-05-05 18:08 -26.61335 153.05339 20282 ft 406 kts
2026-05-05 18:09 -26.58523 153.05764 20718 ft 409 kts
2026-05-05 18:09 -26.55692 153.06193 21172 ft 412 kts
2026-05-05 18:09 -26.52839 153.06625 21596 ft 415 kts
2026-05-05 18:09 -26.49958 153.07060 21924 ft 421 kts
2026-05-05 18:10 -26.47080 153.07496 22274 ft 425 kts
2026-05-05 18:10 -26.44137 153.07942 22708 ft 428 kts 360°
2026-05-05 18:10 -26.41179 153.08391 23150 ft 430 kts 360°
2026-05-05 18:10 -26.38201 153.08843 23560 ft 433 kts 359°
2026-05-05 18:11 -26.35206 153.09295 23898 ft 436 kts 359°
2026-05-05 18:11 -26.32189 153.09737 24261 ft 436 kts 358°
2026-05-05 18:11 -26.29182 153.09868 24635 ft 429 kts 350°
2026-05-05 18:11 -26.26229 153.09609 24999 ft 424 kts 346°
2026-05-05 18:12 -26.23319 153.09068 25323 ft 422 kts 340°
2026-05-05 18:12 -26.20489 153.08220 25659 ft 422 kts 339°
2026-05-05 18:12 -26.17651 153.07339 25988 ft 424 kts 339°
2026-05-05 18:12 -26.14796 153.06457 26334 ft 427 kts 339°
2026-05-05 18:13 -26.11926 153.05578 26681 ft 429 kts 339°
2026-05-05 18:13 -26.09035 153.04698 27037 ft 432 kts 339°
2026-05-05 18:13 -26.06129 153.03818 27384 ft 434 kts 339°
2026-05-05 18:13 -26.03201 153.02934 27728 ft 437 kts 339°
2026-05-05 18:14 -26.00259 153.02047 28068 ft 439 kts 339°
2026-05-05 18:14 -25.97305 153.01158 28398 ft 441 kts 339°
2026-05-05 18:14 -25.94328 153.00262 28687 ft 444 kts 338°
2026-05-05 18:14 -25.91336 152.99362 28976 ft 447 kts 338°
2026-05-05 18:15 -25.88328 152.98457 29269 ft 449 kts 338°
2026-05-05 18:15 -25.85299 152.97547 29552 ft 452 kts 338°
2026-05-05 18:15 -25.82295 152.96645 29833 ft 454 kts 338°
2026-05-05 18:15 -25.79244 152.95729 30116 ft 456 kts 338°
2026-05-05 18:16 -25.76179 152.94810 30442 ft 455 kts 338°
2026-05-05 18:16 -25.73130 152.93897 30838 ft 453 kts 338°
2026-05-05 18:16 -25.70096 152.92988 31226 ft 451 kts 338°
2026-05-05 18:16 -25.67070 152.92081 31537 ft 450 kts 337°
2026-05-05 18:17 -25.64044 152.91170 31773 ft 451 kts 336°
2026-05-05 18:17 -25.61073 152.90103 31949 ft 447 kts 331°
2026-05-05 18:17 -25.58187 152.88806 32015 ft 448 kts 330°
2026-05-05 18:18 -25.52422 152.86217 32044 ft 445 kts 331°
2026-05-05 18:18 -25.46702 152.83679 32047 ft 442 kts 331°
2026-05-05 18:19 -25.40996 152.81155 32048 ft 441 kts 331°
2026-05-05 18:19 -25.35292 152.78636 32025 ft 442 kts 331°
2026-05-05 18:20 -25.29577 152.76114 32043 ft 443 kts 331°
2026-05-05 18:20 -25.23842 152.73587 32053 ft 445 kts 331°
2026-05-05 18:21 -25.18080 152.71050 32054 ft 446 kts 331°
2026-05-05 18:21 -25.12320 152.68518 32046 ft 447 kts 331°
2026-05-05 18:22 -25.06520 152.65971 32048 ft 448 kts 331°
2026-05-05 18:22 -25.00731 152.63431 32048 ft 448 kts 331°
2026-05-05 18:23 -24.94943 152.60894 32043 ft 448 kts 331°
2026-05-05 18:23 -24.89160 152.58362 32044 ft 447 kts 331°
2026-05-05 18:24 -24.83382 152.55835 32044 ft 447 kts 331°
2026-05-05 18:24 -24.77608 152.53311 32041 ft 446 kts 331°
2026-05-05 18:25 -24.71843 152.50794 32034 ft 445 kts 331°
2026-05-05 18:25 -24.66083 152.48282 32039 ft 445 kts 331°
2026-05-05 18:26 -24.60321 152.45770 32039 ft 446 kts 331°
2026-05-05 18:26 -24.54552 152.43259 32039 ft 446 kts 331°
2026-05-05 18:27 -24.48777 152.40747 32034 ft 446 kts 331°
2026-05-05 18:27 -24.43001 152.38238 32026 ft 447 kts 331°
2026-05-05 18:28 -24.34329 152.34475 32030 ft 447 kts 331°
2026-05-05 18:28 -24.28537 152.31965 32029 ft 448 kts 331°
2026-05-05 18:29 -24.22742 152.29456 32038 ft 448 kts 331°
2026-05-05 18:29 -24.16943 152.26948 32033 ft 448 kts 331°
2026-05-05 18:30 -24.11150 152.24445 32022 ft 448 kts 331°
2026-05-05 18:30 -24.05355 152.21944 32029 ft 448 kts 331°
2026-05-05 18:31 -23.99560 152.19444 32028 ft 448 kts 331°
2026-05-05 18:31 -23.93759 152.16945 32024 ft 448 kts 331°
2026-05-05 18:32 -23.87959 152.14448 32024 ft 448 kts 331°
2026-05-05 18:32 -23.82155 152.11952 32009 ft 448 kts 332°
2026-05-05 18:33 -23.77332 152.09881 32017 ft 448 kts 332°
2026-05-05 18:33 -23.71531 152.07390 32022 ft 448 kts 332°
2026-05-05 18:34 -23.65729 152.04902 32020 ft 448 kts 332°
2026-05-05 18:34 -23.59920 152.02413 32019 ft 448 kts 332°
2026-05-05 18:35 -23.54113 151.99928 32019 ft 448 kts 332°
2026-05-05 18:35 -23.48309 151.97446 32011 ft 448 kts 332°
2026-05-05 18:36 -23.42498 151.94963 32015 ft 449 kts 332°
2026-05-05 18:36 -23.36681 151.92480 32010 ft 449 kts 332°
2026-05-05 18:37 -23.30856 151.89996 32008 ft 450 kts 332°
2026-05-05 18:37 -23.25022 151.87511 32015 ft 450 kts 332°
2026-05-05 18:38 -23.19186 151.85027 32003 ft 450 kts 332°
2026-05-05 18:38 -23.13346 151.82544 32010 ft 451 kts 332°
2026-05-05 18:39 -23.07501 151.80061 32010 ft 451 kts 332°
2026-05-05 18:39 -23.01653 151.77579 32007 ft 452 kts 332°
2026-05-05 18:40 -22.95799 151.75097 31997 ft 452 kts 332°
2026-05-05 18:40 -22.89946 151.72617 31987 ft 452 kts 332°
2026-05-05 18:41 -22.84091 151.70139 32002 ft 451 kts 332°
2026-05-05 18:41 -22.78240 151.67665 32007 ft 452 kts 332°
2026-05-05 18:42 -22.72382 151.65190 32006 ft 452 kts 332°
2026-05-05 18:42 -22.66521 151.62716 31998 ft 452 kts 332°
2026-05-05 18:43 -22.60660 151.60243 32005 ft 452 kts 332°
2026-05-05 18:43 -22.54780 151.57802 31994 ft 454 kts 334°
2026-05-05 18:44 -22.48779 151.55627 31997 ft 456 kts 335°
2026-05-05 18:44 -22.42742 151.53523 32000 ft 456 kts 335°
2026-05-05 18:45 -22.36711 151.51390 31995 ft 456 kts 335°
2026-05-05 18:45 -22.30688 151.49234 31996 ft 456 kts 335°
2026-05-05 18:46 -22.24668 151.47071 31991 ft 456 kts 335°
2026-05-05 18:46 -22.18644 151.44906 31996 ft 457 kts 335°
2026-05-05 18:47 -22.12614 151.42744 31995 ft 457 kts 335°
2026-05-05 18:47 -22.06574 151.40580 31995 ft 457 kts 335°
2026-05-05 18:48 -22.00530 151.38417 31991 ft 458 kts 335°
2026-05-05 18:48 -21.94483 151.36254 31993 ft 458 kts 335°
2026-05-05 18:49 -21.88435 151.34094 31989 ft 458 kts 335°
2026-05-05 18:49 -21.82387 151.31935 31993 ft 458 kts 335°
2026-05-05 18:50 -21.76344 151.29780 31988 ft 458 kts 335°
2026-05-05 18:50 -21.70300 151.27627 31989 ft 457 kts 335°
2026-05-05 18:51 -21.64264 151.25478 31982 ft 457 kts 335°
2026-05-05 18:51 -21.58230 151.23332 31989 ft 457 kts 335°
2026-05-05 18:52 -21.52189 151.21185 31988 ft 458 kts 335°
2026-05-05 18:52 -21.46138 151.19036 31987 ft 458 kts 335°
2026-05-05 18:53 -21.40077 151.16886 31984 ft 459 kts 335°
2026-05-05 18:53 -21.34014 151.14737 31972 ft 459 kts 335°
2026-05-05 18:54 -21.27946 151.12589 31981 ft 459 kts 335°
2026-05-05 18:54 -21.21874 151.10440 31981 ft 460 kts 335°
2026-05-05 18:55 -21.15797 151.08292 31981 ft 460 kts 335°
2026-05-05 18:55 -21.09718 151.06145 31980 ft 460 kts 335°
2026-05-05 18:56 -21.03639 151.04000 31965 ft 460 kts 335°
2026-05-05 18:56 -20.97604 151.01872 31979 ft 460 kts 335°
2026-05-05 18:57 -20.91527 150.99731 31977 ft 460 kts 335°
2026-05-05 18:57 -20.85449 150.97591 31976 ft 460 kts 335°
2026-05-05 18:58 -20.79368 150.95453 31975 ft 460 kts 335°
2026-05-05 18:58 -20.73286 150.93316 31955 ft 460 kts 335°
2026-05-05 18:59 -20.67206 150.91181 31968 ft 460 kts 335°
2026-05-05 18:59 -20.61119 150.89045 31975 ft 461 kts 335°
2026-05-05 19:00 -20.55021 150.86908 31975 ft 461 kts 335°
2026-05-05 19:00 -20.48920 150.84771 31973 ft 462 kts 335°
2026-05-05 19:01 -20.42815 150.82635 31952 ft 462 kts 335°
2026-05-05 19:01 -20.36705 150.80499 31966 ft 462 kts 335°
2026-05-05 19:02 -20.30588 150.78362 31965 ft 463 kts 335°
2026-05-05 19:02 -20.24463 150.76224 31967 ft 463 kts 335°
2026-05-05 19:03 -20.18335 150.74087 31970 ft 464 kts 335°
2026-05-05 19:03 -20.12200 150.71949 31967 ft 464 kts 335°
2026-05-05 19:04 -20.06068 150.69814 31963 ft 464 kts 336°
2026-05-05 19:04 -19.99924 150.67677 31969 ft 465 kts 336°
2026-05-05 19:05 -19.93776 150.65539 31968 ft 465 kts 336°
2026-05-05 19:05 -19.87619 150.63401 31966 ft 466 kts 336°
2026-05-05 19:06 -19.81459 150.61264 31970 ft 466 kts 336°
2026-05-05 19:06 -19.75292 150.59125 31966 ft 466 kts 336°
2026-05-05 19:07 -19.69125 150.56989 31962 ft 467 kts 336°
2026-05-05 19:07 -19.62949 150.54851 31958 ft 467 kts 336°
2026-05-05 19:08 -19.56768 150.52713 31964 ft 467 kts 336°
2026-05-05 19:08 -19.50585 150.50576 31958 ft 467 kts 336°
2026-05-05 19:09 -19.44397 150.48438 31947 ft 468 kts 336°
2026-05-05 19:09 -19.38207 150.46303 31955 ft 468 kts 336°
2026-05-05 19:10 -19.32009 150.44166 31959 ft 469 kts 336°
2026-05-05 19:10 -19.25800 150.42026 31956 ft 469 kts 336°
2026-05-05 19:11 -19.19589 150.39888 31955 ft 470 kts 336°
2026-05-05 19:11 -19.13375 150.37751 31948 ft 470 kts 336°
2026-05-05 19:12 -19.07159 150.35614 31957 ft 470 kts 336°
2026-05-05 19:12 -19.00933 150.33476 31957 ft 470 kts 336°
2026-05-05 19:13 -18.94705 150.31339 31956 ft 471 kts 336°
2026-05-05 19:13 -18.88474 150.29203 31954 ft 471 kts 336°
2026-05-05 19:14 -18.82244 150.27068 31957 ft 471 kts 337°
2026-05-05 19:14 -18.76013 150.24935 31954 ft 471 kts 337°
2026-05-05 19:15 -18.70793 150.23149 31955 ft 470 kts 337°
2026-05-05 19:15 -18.63559 150.20676 31956 ft 470 kts 337°
2026-05-05 19:16 -18.58345 150.18895 31953 ft 470 kts 337°
2026-05-05 19:16 -18.52125 150.16772 31944 ft 470 kts 337°
2026-05-05 19:17 -18.45904 150.14650 31954 ft 470 kts 337°
2026-05-05 19:17 -18.39675 150.12527 31955 ft 470 kts 337°
2026-05-05 19:18 -18.33441 150.10403 31953 ft 471 kts 337°
2026-05-05 19:18 -18.27207 150.08281 31953 ft 471 kts 337°
2026-05-05 19:19 -18.20962 150.06157 31944 ft 472 kts 337°
2026-05-05 19:19 -18.14722 150.04037 31955 ft 472 kts 337°
2026-05-05 19:20 -18.08468 150.01917 31947 ft 472 kts 337°
2026-05-05 19:20 -18.02208 149.99796 31946 ft 473 kts 337°
2026-05-05 19:21 -17.95947 149.97677 31946 ft 473 kts 337°
2026-05-05 19:21 -17.89685 149.95557 31935 ft 473 kts 337°
2026-05-05 19:22 -17.83419 149.93438 31955 ft 473 kts 338°
2026-05-05 19:22 -17.77190 149.91334 31952 ft 473 kts 338°
2026-05-05 19:23 -17.70919 149.89216 31940 ft 474 kts 338°
2026-05-05 19:23 -17.64646 149.87099 31936 ft 474 kts 338°
2026-05-05 19:24 -17.58373 149.84984 31930 ft 473 kts 338°
2026-05-05 19:24 -17.52105 149.82872 31947 ft 473 kts 338°
2026-05-05 19:25 -17.45791 149.80746 31944 ft 474 kts 338°
2026-05-05 19:25 -17.39557 149.78649 31939 ft 474 kts 338°
2026-05-05 19:26 -17.33281 149.76539 31942 ft 474 kts 338°
2026-05-05 19:26 -17.26960 149.74415 31934 ft 474 kts 338°
2026-05-05 19:27 -17.20681 149.72307 31939 ft 474 kts 338°
2026-05-05 19:27 -17.14431 149.70210 31940 ft 475 kts 338°
2026-05-05 19:28 -17.08137 149.68100 31944 ft 475 kts 338°
2026-05-05 19:28 -17.01839 149.65990 31940 ft 475 kts 338°
2026-05-05 19:29 -16.95540 149.63881 31940 ft 476 kts 338°
2026-05-05 19:29 -16.89232 149.61771 31935 ft 476 kts 338°
2026-05-05 19:30 -16.82920 149.59661 31940 ft 476 kts 338°
2026-05-05 19:30 -16.76603 149.57551 31944 ft 477 kts 338°
2026-05-05 19:31 -16.70279 149.55440 31940 ft 477 kts 338°
2026-05-05 19:31 -16.63950 149.53329 31941 ft 478 kts 338°
2026-05-05 19:32 -16.57615 149.51217 31939 ft 478 kts 339°
2026-05-05 19:32 -16.51275 149.49105 31944 ft 478 kts 339°
2026-05-05 19:33 -16.44933 149.46993 31940 ft 479 kts 339°
2026-05-05 19:33 -16.38585 149.44881 31939 ft 479 kts 339°
2026-05-05 19:34 -16.32239 149.42772 31937 ft 479 kts 339°
2026-05-05 19:35 -16.22711 149.39607 31934 ft 479 kts 339°
2026-05-05 19:35 -16.16353 149.37497 31933 ft 480 kts 339°
2026-05-05 19:36 -16.09950 149.35373 31937 ft 480 kts 339°
2026-05-05 19:36 -16.03626 149.33277 31937 ft 480 kts 339°
2026-05-05 19:37 -15.97258 149.31168 31923 ft 480 kts 339°
2026-05-05 19:37 -15.90891 149.29060 31937 ft 481 kts 339°
2026-05-05 19:38 -15.84513 149.26951 31937 ft 481 kts 339°
2026-05-05 19:38 -15.78137 149.24843 31934 ft 481 kts 339°
2026-05-05 19:39 -15.71753 149.22734 31934 ft 482 kts 339°
2026-05-05 19:39 -15.65363 149.20624 31934 ft 482 kts 339°
2026-05-05 19:40 -15.58979 149.18518 31935 ft 482 kts 339°
2026-05-05 19:40 -15.52590 149.16412 31933 ft 482 kts 339°
2026-05-05 19:41 -15.46206 149.14308 31933 ft 481 kts 339°
2026-05-05 19:41 -15.39819 149.12205 31931 ft 481 kts 339°
2026-05-05 19:42 -15.33443 149.10107 31924 ft 481 kts 339°
2026-05-05 19:42 -15.27064 149.08008 31934 ft 481 kts 339°
2026-05-05 19:43 -15.20681 149.05910 31930 ft 481 kts 339°
2026-05-05 19:43 -15.14300 149.03814 31933 ft 481 kts 339°
2026-05-05 19:44 -15.07916 149.01718 31932 ft 481 kts 339°
2026-05-05 19:44 -15.01528 148.99620 31924 ft 482 kts 339°
2026-05-05 19:45 -14.95142 148.97525 31927 ft 482 kts 339°
2026-05-05 19:45 -14.88753 148.95430 31930 ft 482 kts 339°
2026-05-05 19:46 -14.82359 148.93334 31930 ft 482 kts 339°
2026-05-05 19:46 -14.75957 148.91238 31929 ft 482 kts 339°
2026-05-05 19:47 -14.69559 148.89143 31918 ft 483 kts 339°
2026-05-05 19:47 -14.63157 148.87049 31925 ft 483 kts 339°
2026-05-05 19:48 -14.56751 148.84955 31932 ft 483 kts 339°
2026-05-05 19:48 -14.50336 148.82859 31929 ft 484 kts 339°
2026-05-05 19:49 -14.43918 148.80764 31922 ft 484 kts 339°
2026-05-05 19:49 -14.37497 148.78668 31919 ft 484 kts 340°
2026-05-05 19:50 -14.31076 148.76575 31923 ft 484 kts 340°
2026-05-05 19:50 -14.24648 148.74479 31923 ft 485 kts 340°
2026-05-05 19:51 -14.18218 148.72385 31926 ft 485 kts 340°
2026-05-05 19:51 -14.11783 148.70290 31926 ft 485 kts 340°
2026-05-05 19:52 -14.05348 148.68197 31917 ft 485 kts 340°
2026-05-05 19:52 -13.98907 148.66103 31924 ft 485 kts 340°
2026-05-05 19:53 -13.92467 148.64010 31922 ft 486 kts 340°
2026-05-05 19:53 -13.86017 148.61915 31923 ft 486 kts 340°
2026-05-05 19:54 -13.79566 148.59822 31919 ft 486 kts 340°
2026-05-05 19:54 -13.73112 148.57728 31920 ft 486 kts 340°
2026-05-05 19:55 -13.66653 148.55634 31923 ft 487 kts 340°
2026-05-05 19:55 -13.60183 148.53538 31921 ft 487 kts 340°
2026-05-05 19:56 -13.54804 148.51796 31923 ft 488 kts 340°
2026-05-05 19:56 -13.48330 148.49700 31925 ft 488 kts 340°
2026-05-05 19:57 -13.41854 148.47605 31913 ft 488 kts 340°
2026-05-05 19:57 -13.35368 148.45508 31917 ft 488 kts 340°
2026-05-05 19:58 -13.28885 148.43414 31919 ft 489 kts 340°
2026-05-05 19:58 -13.22393 148.41317 31922 ft 489 kts 340°
2026-05-05 19:59 -13.15903 148.39222 31920 ft 489 kts 340°
2026-05-05 19:59 -13.09407 148.37127 31917 ft 489 kts 341°
2026-05-05 20:00 -13.02908 148.35031 31918 ft 489 kts 341°
2026-05-05 20:00 -12.96408 148.32937 31921 ft 490 kts 341°
2026-05-05 20:01 -12.89907 148.30843 31917 ft 490 kts 341°
2026-05-05 20:01 -12.83448 148.28765 31914 ft 490 kts 341°
2026-05-05 20:02 -12.76945 148.26672 31915 ft 490 kts 341°
2026-05-05 20:02 -12.70438 148.24580 31911 ft 490 kts 341°
2026-05-05 20:03 -12.63933 148.22490 31911 ft 490 kts 341°
2026-05-05 20:03 -12.57426 148.20400 31912 ft 490 kts 341°
2026-05-05 20:04 -12.50961 148.18325 31911 ft 490 kts 341°
2026-05-05 20:04 -12.44453 148.16236 31913 ft 490 kts 341°
2026-05-05 20:05 -12.37945 148.14149 31913 ft 490 kts 341°
2026-05-05 20:05 -12.31441 148.12064 31913 ft 490 kts 341°
2026-05-05 20:06 -12.24980 148.09995 31912 ft 490 kts 341°
2026-05-05 20:06 -12.18474 148.07911 31913 ft 490 kts 341°
2026-05-05 20:07 -12.11966 148.05828 31910 ft 490 kts 341°
2026-05-05 20:07 -12.05506 148.03762 31908 ft 490 kts 341°
2026-05-05 20:08 -11.98999 148.01681 31909 ft 490 kts 341°
2026-05-05 20:08 -11.92494 147.99608 31911 ft 490 kts 341°
2026-05-05 20:09 -11.85985 147.97535 31908 ft 490 kts 341°
2026-05-05 20:09 -11.79478 147.95463 31906 ft 490 kts 341°
2026-05-05 20:10 -11.73019 147.93407 31909 ft 489 kts 341°
2026-05-05 20:10 -11.66515 147.91337 31909 ft 489 kts 341°
2026-05-05 20:11 -11.60015 147.89269 31902 ft 489 kts 341°
2026-05-05 20:11 -11.53509 147.87201 31904 ft 490 kts 341°
2026-05-05 20:12 -11.47047 147.85148 31904 ft 490 kts 341°
2026-05-05 20:12 -11.40537 147.83080 31904 ft 490 kts 341°
2026-05-05 20:13 -11.34028 147.81013 31902 ft 490 kts 341°
2026-05-05 20:13 -11.27517 147.78948 31901 ft 490 kts 341°
2026-05-05 20:14 -11.21055 147.76898 31900 ft 490 kts 341°
2026-05-05 20:14 -11.14541 147.74833 31901 ft 490 kts 341°
2026-05-05 20:15 -11.08041 147.72773 31899 ft 489 kts 341°
2026-05-05 20:15 -11.01553 147.70719 31899 ft 488 kts 341°
2026-05-05 20:16 -10.95126 147.68684 31897 ft 487 kts 341°
2026-05-05 20:16 -10.88659 147.66638 31895 ft 487 kts 342°
2026-05-05 20:17 -10.82198 147.64594 31895 ft 487 kts 342°
2026-05-05 20:17 -10.75772 147.62562 31893 ft 487 kts 342°
2026-05-05 20:18 -10.69301 147.60518 31897 ft 487 kts 342°
2026-05-05 20:18 -10.62822 147.58471 31895 ft 488 kts 342°
2026-05-05 20:19 -10.56338 147.56424 31893 ft 488 kts 342°
2026-05-05 20:19 -10.49849 147.54377 31898 ft 488 kts 342°
2026-05-05 20:20 -10.43408 147.52345 31895 ft 488 kts 342°
2026-05-05 20:20 -10.36927 147.50301 31894 ft 487 kts 342°
2026-05-05 20:21 -10.30451 147.48260 31892 ft 487 kts 342°
2026-05-05 20:21 -10.23980 147.46222 31893 ft 487 kts 342°
2026-05-05 20:22 -10.17553 147.44198 31885 ft 487 kts 342°
2026-05-05 20:22 -10.11079 147.42160 31887 ft 487 kts 342°
2026-05-05 20:23 -10.04598 147.40121 31888 ft 488 kts 342°
2026-05-05 20:23 -9.98111 147.38081 31888 ft 488 kts 342°
2026-05-05 20:24 -9.91660 147.36053 31885 ft 489 kts 342°
2026-05-05 20:24 -9.85150 147.34006 31884 ft 490 kts 342°
2026-05-05 20:25 -9.78637 147.31960 31890 ft 490 kts 342°
2026-05-05 20:25 -9.72115 147.29913 31895 ft 490 kts 342°
2026-05-05 20:26 -9.65641 147.27881 31892 ft 490 kts 342°
2026-05-05 20:26 -9.59126 147.25836 31886 ft 490 kts 342°
2026-05-05 20:27 -9.52614 147.23794 31884 ft 490 kts 342°
2026-05-05 20:27 -9.46399 147.21069 31875 ft 489 kts 324°
2026-05-05 20:28 -9.41606 147.16275 31873 ft 490 kts 304°
2026-05-05 20:28 -9.37864 147.10487 31882 ft 493 kts 304°
2026-05-05 20:29 -9.34076 147.04669 31885 ft 496 kts 304°
2026-05-05 20:29 -9.30223 146.98850 31885 ft 498 kts 304°
2026-05-05 20:30 -9.26341 146.93030 31872 ft 499 kts 304°
2026-05-05 20:30 -9.22486 146.87258 31877 ft 497 kts 305°
2026-05-05 20:31 -9.18622 146.81468 31876 ft 495 kts 304°
2026-05-05 20:31 -9.14770 146.75699 31871 ft 494 kts 304°
2026-05-05 20:32 -9.10929 146.69947 31873 ft 493 kts 304°
2026-05-05 20:32 -9.07117 146.64240 31873 ft 493 kts 304°
2026-05-05 20:33 -9.03272 146.58487 31884 ft 494 kts 304°
2026-05-05 20:33 -8.99424 146.52733 31873 ft 494 kts 304°
2026-05-05 20:34 -8.95569 146.46971 31884 ft 494 kts 305°
2026-05-05 20:34 -8.91744 146.41255 31876 ft 494 kts 304°
2026-05-05 20:35 -8.87894 146.35505 31873 ft 494 kts 304°
2026-05-05 20:35 -8.84041 146.29752 31880 ft 494 kts 304°
2026-05-05 20:36 -8.80186 146.23999 31875 ft 495 kts 305°
2026-05-05 20:36 -8.76352 146.18280 31873 ft 495 kts 304°
2026-05-05 20:37 -8.72487 146.12514 31885 ft 495 kts 304°
2026-05-05 20:37 -8.68604 146.06758 31878 ft 495 kts 305°
2026-05-05 20:38 -8.64674 146.01046 31876 ft 495 kts 305°
2026-05-05 20:38 -8.60739 145.95348 31877 ft 494 kts 305°
2026-05-05 20:39 -8.56840 145.89687 31891 ft 494 kts 305°
2026-05-05 20:39 -8.52922 145.83991 31879 ft 494 kts 305°
2026-05-05 20:40 -8.48990 145.78276 31886 ft 495 kts 305°
2026-05-05 20:40 -8.45059 145.72564 31894 ft 495 kts 305°
2026-05-05 20:41 -8.41146 145.66883 31882 ft 496 kts 305°
2026-05-05 20:41 -8.37207 145.61166 31883 ft 496 kts 305°
2026-05-05 20:42 -8.33271 145.55454 31886 ft 495 kts 305°
2026-05-05 20:42 -8.29334 145.49744 31884 ft 495 kts 306°
2026-05-05 20:43 -8.25433 145.44089 31884 ft 494 kts 305°
2026-05-05 20:43 -8.21508 145.38401 31883 ft 494 kts 305°
2026-05-05 20:44 -8.17584 145.32717 31896 ft 493 kts 306°
2026-05-05 20:44 -8.13661 145.27038 31886 ft 493 kts 305°
2026-05-05 20:45 -8.07809 145.18569 31886 ft 493 kts 306°
2026-05-05 20:45 -8.03881 145.12887 31896 ft 495 kts 306°
2026-05-05 20:46 -7.99935 145.07180 31897 ft 497 kts 306°
2026-05-05 20:46 -7.95973 145.01454 31894 ft 499 kts 306°
2026-05-05 20:47 -7.91998 144.95710 31892 ft 499 kts 306°
2026-05-05 20:47 -7.88051 144.90009 31898 ft 499 kts 306°
2026-05-05 20:48 -7.84077 144.84272 31886 ft 498 kts 306°
2026-05-05 20:48 -7.80114 144.78552 31893 ft 497 kts 306°
2026-05-05 20:49 -7.76162 144.72851 31895 ft 495 kts 306°
2026-05-05 20:49 -7.72241 144.67196 31889 ft 495 kts 305°
2026-05-05 20:50 -7.68291 144.61503 31895 ft 496 kts 305°
2026-05-05 20:50 -7.64334 144.55800 31901 ft 497 kts 305°
2026-05-05 20:51 -7.60367 144.50086 31897 ft 498 kts 305°
2026-05-05 20:51 -7.56421 144.44404 31903 ft 498 kts 305°
2026-05-05 20:52 -7.52445 144.38679 31899 ft 499 kts 305°
2026-05-05 20:52 -7.48464 144.32950 31908 ft 499 kts 305°
2026-05-05 20:53 -7.44484 144.27224 31900 ft 499 kts 305°
2026-05-05 20:53 -7.40487 144.21579 31906 ft 498 kts 307°
2026-05-05 20:54 -7.36284 144.16030 31905 ft 498 kts 308°
2026-05-05 20:54 -7.32053 144.10503 31914 ft 498 kts 308°
2026-05-05 20:55 -7.27876 144.04996 31904 ft 498 kts 307°
2026-05-05 20:55 -7.23686 143.99438 31919 ft 498 kts 307°
2026-05-05 20:56 -7.19501 143.93882 31916 ft 498 kts 307°
2026-05-05 20:56 -7.15308 143.88319 31919 ft 498 kts 307°
2026-05-05 20:57 -7.11146 143.82801 31924 ft 499 kts 307°
2026-05-05 20:57 -7.06948 143.77238 31925 ft 499 kts 307°
2026-05-05 20:58 -7.02756 143.71685 31934 ft 499 kts 307°
2026-05-05 20:58 -6.98560 143.66130 31929 ft 498 kts 307°
2026-05-05 20:59 -6.94392 143.60611 31936 ft 498 kts 307°
2026-05-05 20:59 -6.90206 143.55071 31937 ft 497 kts 307°
2026-05-05 21:00 -6.86023 143.49538 31938 ft 497 kts 308°
2026-05-05 21:00 -6.81841 143.44008 31950 ft 496 kts 308°
2026-05-05 21:01 -6.77663 143.38484 31943 ft 496 kts 308°
2026-05-05 21:01 -6.73512 143.32997 31941 ft 496 kts 308°
2026-05-05 21:02 -6.69336 143.27480 31950 ft 496 kts 307°
2026-05-05 21:02 -6.65156 143.21958 31948 ft 497 kts 308°
2026-05-05 21:03 -6.60991 143.16459 31958 ft 498 kts 308°
2026-05-05 21:03 -6.56787 143.10910 31965 ft 499 kts 308°
2026-05-05 21:04 -6.52570 143.05346 31965 ft 501 kts 308°
2026-05-05 21:04 -6.48348 142.99776 31962 ft 501 kts 308°
2026-05-05 21:05 -6.44115 142.94194 31957 ft 502 kts 308°
2026-05-05 21:05 -6.39910 142.88650 31967 ft 502 kts 308°
2026-05-05 21:06 -6.35677 142.83071 31961 ft 502 kts 307°
2026-05-05 21:06 -6.31442 142.77491 31959 ft 502 kts 307°
2026-05-05 21:07 -6.27202 142.71907 31965 ft 503 kts 308°
2026-05-05 21:07 -6.22982 142.66350 31960 ft 504 kts 308°
2026-05-05 21:08 -6.18725 142.60746 31955 ft 505 kts 308°
2026-05-05 21:08 -6.14463 142.55137 31961 ft 505 kts 308°
2026-05-05 21:09 -6.10199 142.49527 31955 ft 505 kts 308°
2026-05-05 21:09 -6.05965 142.43959 31949 ft 504 kts 308°
2026-05-05 21:10 -6.01708 142.38361 31963 ft 504 kts 308°
2026-05-05 21:10 -5.97460 142.32776 31951 ft 502 kts 307°
2026-05-05 21:11 -5.93250 142.27242 31939 ft 501 kts 307°
2026-05-05 21:11 -5.88380 142.22374 31961 ft 496 kts 332°
2026-05-05 21:12 -5.85198 142.21042 31928 ft 497 kts 346°
2026-05-05 21:12 -5.81787 142.20543 31934 ft 495 kts 358°
2026-05-05 21:12 -5.74882 142.20416 31965 ft 499 kts 359°
2026-05-05 21:13 -5.67965 142.20250 31968 ft 502 kts 358°
2026-05-05 21:13 -5.60957 142.20023 31986 ft 505 kts 358°
2026-05-05 21:14 -5.53916 142.19769 31973 ft 506 kts 358°
2026-05-05 21:14 -5.46879 142.19510 31998 ft 506 kts 358°
2026-05-05 21:15 -5.39907 142.19257 32002 ft 503 kts 358°
2026-05-05 21:15 -5.32923 142.19007 32008 ft 501 kts 358°
2026-05-05 21:16 -5.25962 142.18757 32004 ft 500 kts 358°
2026-05-05 21:16 -5.19025 142.18508 32007 ft 498 kts 358°
2026-05-05 21:17 -5.12093 142.18260 32011 ft 498 kts 358°
2026-05-05 21:17 -5.05210 142.18013 31998 ft 499 kts 358°
2026-05-05 21:18 -4.98273 142.17764 31989 ft 499 kts 358°
2026-05-05 21:18 -4.91326 142.17515 31974 ft 500 kts 358°
2026-05-05 21:19 -4.84372 142.17266 31974 ft 500 kts 358°
2026-05-05 21:19 -4.77456 142.17018 31943 ft 501 kts 358°
2026-05-05 21:20 -4.70484 142.16768 31948 ft 501 kts 358°
2026-05-05 21:20 -4.63515 142.16519 31929 ft 501 kts 358°
2026-05-05 21:21 -4.56593 142.16271 31904 ft 501 kts 358°
2026-05-05 21:21 -4.49629 142.16022 31904 ft 501 kts 358°
2026-05-05 21:22 -4.42670 142.15773 31900 ft 500 kts 358°
2026-05-05 21:22 -4.35713 142.15524 31899 ft 500 kts 358°
2026-05-05 21:23 -4.28764 142.15276 31894 ft 500 kts 358°
2026-05-05 21:23 -4.21866 142.15029 31897 ft 500 kts 358°
2026-05-05 21:24 -4.14942 142.14782 31897 ft 499 kts 358°
2026-05-05 21:24 -4.08008 142.14534 31894 ft 498 kts 358°
2026-05-05 21:25 -4.01084 142.14286 31891 ft 498 kts 358°
2026-05-05 21:25 -3.94208 142.14041 31898 ft 497 kts 358°
2026-05-05 21:26 -3.87292 142.13794 31897 ft 497 kts 358°
2026-05-05 21:26 -3.80374 142.13546 31902 ft 498 kts 358°
2026-05-05 21:27 -3.73450 142.13299 31897 ft 498 kts 358°
2026-05-05 21:27 -3.66572 142.13054 31916 ft 498 kts 358°
2026-05-05 21:28 -3.59643 142.12806 31906 ft 498 kts 358°
2026-05-05 21:28 -3.52714 142.12559 31905 ft 498 kts 358°
2026-05-05 21:29 -3.45842 142.12314 31906 ft 497 kts 358°
2026-05-05 21:29 -3.38934 142.12067 31907 ft 497 kts 358°
2026-05-05 21:30 -3.32028 142.11820 31915 ft 496 kts 358°
2026-05-05 21:30 -3.25126 142.11575 31887 ft 497 kts 358°
2026-05-05 21:31 -3.18265 142.11330 31898 ft 497 kts 358°
2026-05-05 21:31 -3.11354 142.11083 31875 ft 497 kts 358°
2026-05-05 21:32 -3.04435 142.10836 31874 ft 497 kts 358°
2026-05-05 21:32 -2.97518 142.10590 31879 ft 498 kts 358°
2026-05-05 21:33 -2.90641 142.10344 31879 ft 498 kts 358°
2026-05-05 21:33 -2.83718 142.10098 31880 ft 498 kts 358°
2026-05-05 21:34 -2.76793 142.09851 31874 ft 498 kts 358°
2026-05-05 21:34 -2.69874 142.09604 31873 ft 498 kts 358°
2026-05-05 21:35 -2.62996 142.09359 31884 ft 498 kts 358°
2026-05-05 21:35 -2.56074 142.09112 31876 ft 498 kts 358°
2026-05-05 21:36 -2.49156 142.08866 31885 ft 498 kts 358°
2026-05-05 21:36 -2.42235 142.08619 31886 ft 497 kts 358°
2026-05-05 21:37 -2.35361 142.08374 31875 ft 498 kts 358°
2026-05-05 21:37 -2.28439 142.08128 31880 ft 498 kts 358°
2026-05-05 21:38 -2.21514 142.07881 31884 ft 498 kts 358°
2026-05-05 21:38 -2.14585 142.07635 31884 ft 498 kts 358°
2026-05-05 21:39 -2.07704 142.07389 31879 ft 499 kts 358°
2026-05-05 21:39 -2.00769 142.07143 31885 ft 499 kts 358°
2026-05-05 21:40 -1.93821 142.06895 31883 ft 500 kts 358°
2026-05-05 21:40 -1.86869 142.06648 31883 ft 500 kts 358°
2026-05-05 21:41 -1.79961 142.06402 31880 ft 500 kts 358°
2026-05-05 21:41 -1.72997 142.06154 31885 ft 501 kts 358°
2026-05-05 21:42 -1.66026 142.05906 31879 ft 502 kts 358°
2026-05-05 21:42 -1.59042 142.05657 31877 ft 502 kts 358°
2026-05-05 21:43 -1.52102 142.05410 31880 ft 503 kts 358°
2026-05-05 21:43 -1.45108 142.05161 31876 ft 503 kts 359°
2026-05-05 21:44 -1.38107 142.04913 31879 ft 504 kts 359°
2026-05-05 21:44 -1.31099 142.04663 31879 ft 504 kts 359°
2026-05-05 21:45 -1.24139 142.04416 31878 ft 504 kts 359°
2026-05-05 21:45 -1.17133 142.04166 31862 ft 504 kts 359°
2026-05-05 21:46 -1.10125 142.03917 31874 ft 504 kts 359°
2026-05-05 21:46 -1.03114 142.03668 31875 ft 504 kts 359°
2026-05-05 21:47 -0.96158 142.03420 31876 ft 504 kts 359°
2026-05-05 21:47 -0.89147 142.03171 31875 ft 504 kts 359°
2026-05-05 21:48 -0.82133 142.02921 31881 ft 504 kts 359°
2026-05-05 21:48 -0.75119 142.02672 31875 ft 505 kts 359°
2026-05-05 21:49 -0.68093 142.02422 31879 ft 505 kts 359°
2026-05-05 21:49 -0.61108 142.02174 31875 ft 505 kts 359°
2026-05-05 21:50 -0.54082 142.01924 31875 ft 505 kts 359°
2026-05-05 21:50 -0.47048 142.01674 31875 ft 506 kts 359°
2026-05-05 21:51 -0.40060 142.01425 31873 ft 506 kts 359°
2026-05-05 21:51 -0.33021 142.01175 31873 ft 506 kts 359°
2026-05-05 21:52 -0.22466 142.00799 31874 ft 506 kts 359°
2026-05-05 21:53 -0.15476 142.00551 31876 ft 506 kts 359°
2026-05-05 21:53 -0.08438 142.00300 31875 ft 506 kts 359°
2026-05-05 21:54 -0.01401 142.00050 31877 ft 506 kts 359°
2026-05-05 21:54 0.05637 141.99846 31876 ft 506 kts 359°
2026-05-05 21:55 0.12675 141.99716 31870 ft 506 kts 360°
2026-05-05 21:55 0.19660 141.99589 31872 ft 506 kts 360°
2026-05-05 21:56 0.26697 141.99449 31877 ft 506 kts 360°
2026-05-05 21:56 0.33731 141.99303 31878 ft 506 kts 360°
2026-05-05 21:57 0.40762 141.99156 31877 ft 505 kts 360°
2026-05-05 21:57 0.47749 141.99011 31877 ft 505 kts 360°
2026-05-05 21:58 0.54781 141.98865 31874 ft 505 kts 360°
2026-05-05 21:58 0.61813 141.98720 31872 ft 505 kts 359°
2026-05-05 21:59 0.68800 141.98575 31870 ft 506 kts 359°
2026-05-05 21:59 0.75845 141.98429 31869 ft 506 kts 360°
2026-05-05 22:00 0.82894 141.98283 31870 ft 507 kts 360°
2026-05-05 22:00 0.89944 141.98137 31875 ft 507 kts 360°
2026-05-05 22:01 0.96955 141.97992 31876 ft 507 kts 359°
2026-05-05 22:01 1.04018 141.97845 31872 ft 508 kts 359°
2026-05-05 22:02 1.11080 141.97699 31872 ft 508 kts 359°
2026-05-05 22:02 1.18141 141.97552 31870 ft 508 kts 359°
2026-05-05 22:03 1.25158 141.97407 31870 ft 507 kts 359°
2026-05-05 22:03 1.32213 141.97261 31873 ft 507 kts 359°
2026-05-05 22:04 1.39270 141.97115 31870 ft 507 kts 359°
2026-05-05 22:04 1.46320 141.96968 31872 ft 507 kts 359°
2026-05-05 22:05 1.53370 141.96822 31874 ft 507 kts 359°
2026-05-05 22:05 1.60371 141.96677 31872 ft 506 kts 359°
2026-05-05 22:06 1.67414 141.96531 31872 ft 506 kts 359°
2026-05-05 22:06 1.74453 141.96385 31874 ft 506 kts 359°
2026-05-05 22:07 1.81488 141.96239 31875 ft 506 kts 359°
2026-05-05 22:07 1.88475 141.96094 31873 ft 505 kts 359°
2026-05-05 22:08 1.95499 141.95949 31874 ft 505 kts 359°
2026-05-05 22:08 2.02524 141.95803 31874 ft 505 kts 359°
2026-05-05 22:09 2.09543 141.95657 31872 ft 504 kts 359°
2026-05-05 22:09 2.16513 141.95513 31874 ft 505 kts 359°
2026-05-05 22:10 2.23536 141.95367 31878 ft 505 kts 359°
2026-05-05 22:10 2.30560 141.95221 31877 ft 505 kts 359°
2026-05-05 22:11 2.37589 141.95075 31875 ft 505 kts 359°
2026-05-05 22:11 2.44568 141.94931 31875 ft 505 kts 359°
2026-05-05 22:12 2.51596 141.94785 31873 ft 505 kts 359°
2026-05-05 22:12 2.58618 141.94639 31874 ft 504 kts 359°
2026-05-05 22:13 2.65633 141.94493 31874 ft 504 kts 359°
2026-05-05 22:13 2.72643 141.94348 31872 ft 504 kts 359°
2026-05-05 22:14 2.79598 141.94203 31872 ft 503 kts 359°
2026-05-05 22:14 2.86594 141.94058 31874 ft 502 kts 359°
2026-05-05 22:15 2.93581 141.93913 31876 ft 502 kts 359°
2026-05-05 22:15 3.00564 141.93768 31902 ft 502 kts 359°
2026-05-05 22:16 3.07504 141.93624 31880 ft 503 kts 359°
2026-05-05 22:16 3.14506 141.93478 31878 ft 504 kts 359°
2026-05-05 22:17 3.21517 141.93333 31876 ft 504 kts 359°
2026-05-05 22:17 3.28533 141.93187 31875 ft 505 kts 359°
2026-05-05 22:18 3.35508 141.93042 31876 ft 505 kts 359°
2026-05-05 22:18 3.42536 141.92896 31878 ft 505 kts 359°
2026-05-05 22:19 3.49561 141.92750 31877 ft 505 kts 359°
2026-05-05 22:19 3.56588 141.92603 31875 ft 505 kts 359°
2026-05-05 22:20 3.63611 141.92457 31871 ft 505 kts 359°
2026-05-05 22:20 3.70583 141.92312 31875 ft 504 kts 359°
2026-05-05 22:21 3.77602 141.92166 31873 ft 504 kts 359°
2026-05-05 22:21 3.84622 141.92020 31874 ft 504 kts 359°
2026-05-05 22:22 3.91640 141.91874 31875 ft 504 kts 359°
2026-05-05 22:22 3.98596 141.91411 31876 ft 506 kts 351°
2026-05-05 22:23 4.05415 141.89679 31879 ft 507 kts 340°
2026-05-05 22:23 4.11978 141.87083 31881 ft 508 kts 339°
2026-05-05 22:24 4.18539 141.84439 31876 ft 508 kts 339°
2026-05-05 22:24 4.25115 141.81823 31874 ft 509 kts 339°
2026-05-05 22:25 4.31659 141.79245 31874 ft 509 kts 339°
2026-05-05 22:25 4.38253 141.76654 31874 ft 509 kts 339°
2026-05-05 22:26 4.44847 141.74061 31873 ft 509 kts 339°
2026-05-05 22:26 4.51433 141.71468 31873 ft 508 kts 339°
2026-05-05 22:27 4.57972 141.68893 31877 ft 508 kts 339°
2026-05-05 22:27 4.64556 141.66300 31878 ft 508 kts 339°
2026-05-05 22:28 4.71140 141.63707 31879 ft 508 kts 339°
2026-05-05 22:28 4.77719 141.61115 31879 ft 508 kts 339°
2026-05-05 22:29 4.84258 141.58538 31880 ft 508 kts 339°
2026-05-05 22:29 4.90835 141.55945 31880 ft 508 kts 339°
2026-05-05 22:30 4.97419 141.53350 31878 ft 508 kts 339°
2026-05-05 22:30 5.03996 141.50756 31880 ft 508 kts 339°
2026-05-05 22:31 5.10530 141.48179 31878 ft 508 kts 339°
2026-05-05 22:31 5.17109 141.45583 31877 ft 508 kts 339°
2026-05-05 22:32 5.23690 141.42987 31877 ft 508 kts 339°
2026-05-05 22:32 5.30269 141.40390 31877 ft 508 kts 339°
2026-05-05 22:33 5.36801 141.37811 31874 ft 508 kts 339°
2026-05-05 22:33 5.43379 141.35214 31879 ft 508 kts 339°
2026-05-05 22:34 5.49955 141.32616 31880 ft 508 kts 339°
2026-05-05 22:34 5.56527 141.30020 31880 ft 508 kts 339°
2026-05-05 22:35 5.63059 141.27439 31879 ft 508 kts 339°
2026-05-05 22:35 5.69634 141.24840 31880 ft 508 kts 339°
2026-05-05 22:36 5.76207 141.22242 31880 ft 508 kts 339°
2026-05-05 22:36 5.82780 141.19643 31882 ft 508 kts 339°
2026-05-05 22:37 5.89350 141.17044 31881 ft 508 kts 339°
2026-05-05 22:37 5.95874 141.14462 31873 ft 507 kts 339°
2026-05-05 22:38 6.02445 141.11862 31885 ft 508 kts 339°
2026-05-05 22:38 6.09021 141.09259 31887 ft 508 kts 339°
2026-05-05 22:39 6.15600 141.06654 31887 ft 508 kts 339°
2026-05-05 22:39 6.22137 141.04065 31884 ft 509 kts 339°
2026-05-05 22:40 6.28719 141.01457 31883 ft 508 kts 339°
2026-05-05 22:40 6.35300 140.98849 31882 ft 508 kts 339°
2026-05-05 22:41 6.41882 140.96240 31885 ft 508 kts 339°
2026-05-05 22:41 6.48419 140.93649 31885 ft 508 kts 339°
2026-05-05 22:42 6.54999 140.91039 31885 ft 508 kts 339°
2026-05-05 22:42 6.61574 140.88430 31889 ft 508 kts 339°
2026-05-05 22:43 6.68147 140.85822 31887 ft 508 kts 339°
2026-05-05 22:43 6.74678 140.83230 31923 ft 510 kts 339°
2026-05-05 22:43 6.77993 140.81914 32167 ft 511 kts 339°
2026-05-05 22:44 6.81298 140.80601 32529 ft 509 kts 339°
2026-05-05 22:44 6.84585 140.79296 32893 ft 508 kts 339°
2026-05-05 22:44 6.87868 140.77991 33255 ft 506 kts 339°
2026-05-05 22:44 6.91139 140.76692 33585 ft 506 kts 339°
2026-05-05 22:45 6.94413 140.75391 33814 ft 507 kts 339°
2026-05-05 22:45 7.00999 140.72774 33888 ft 508 kts 339°
2026-05-05 22:46 7.07506 140.70187 33883 ft 505 kts 339°
2026-05-05 22:46 7.14028 140.67593 33887 ft 504 kts 339°
2026-05-05 22:47 7.20545 140.65001 33891 ft 504 kts 339°
2026-05-05 22:47 7.25964 140.62845 33888 ft 504 kts 339°
2026-05-05 22:48 7.33547 140.59827 33889 ft 505 kts 339°
2026-05-05 22:48 7.40082 140.57225 33888 ft 505 kts 339°
2026-05-05 22:49 7.46620 140.54621 33889 ft 506 kts 339°
2026-05-05 22:49 7.52080 140.52446 33889 ft 507 kts 339°
2026-05-05 22:50 7.59708 140.49406 33885 ft 508 kts 339°
2026-05-05 22:50 7.66279 140.46786 33890 ft 508 kts 339°
2026-05-05 22:51 7.71742 140.44607 33891 ft 508 kts 339°
2026-05-05 22:51 7.78316 140.41985 33891 ft 508 kts 339°
2026-05-05 22:52 7.84882 140.39365 33890 ft 507 kts 339°
2026-05-05 22:52 7.91438 140.36748 33890 ft 507 kts 339°
2026-05-05 22:53 7.97947 140.34148 33886 ft 506 kts 340°
2026-05-05 22:53 8.04477 140.31540 33888 ft 505 kts 340°
2026-05-05 22:54 8.12071 140.28505 33893 ft 504 kts 339°
2026-05-05 22:54 8.17533 140.26322 33882 ft 504 kts 340°
2026-05-05 22:55 8.24008 140.23733 33889 ft 504 kts 340°
2026-05-05 22:55 8.30528 140.21125 33890 ft 504 kts 340°
2026-05-05 22:56 8.37048 140.18516 33890 ft 504 kts 340°
2026-05-05 22:56 8.43571 140.15904 33888 ft 504 kts 340°
2026-05-05 22:57 8.50053 140.13309 33892 ft 504 kts 340°
2026-05-05 22:57 8.56575 140.10696 33891 ft 504 kts 340°
2026-05-05 22:58 8.63101 140.08081 33891 ft 505 kts 340°
2026-05-05 22:58 8.69628 140.05464 33890 ft 505 kts 340°
2026-05-05 22:59 8.76112 140.02864 33888 ft 504 kts 340°
2026-05-05 22:59 8.82632 140.00248 33889 ft 504 kts 340°
2026-05-05 23:00 8.92399 139.96327 33889 ft 503 kts 340°
2026-05-05 23:00 8.98870 139.93728 33895 ft 503 kts 340°
2026-05-05 23:01 9.05372 139.91117 33893 ft 503 kts 340°
2026-05-05 23:01 9.11875 139.88503 33891 ft 503 kts 340°
2026-05-05 23:02 9.18374 139.85890 33889 ft 503 kts 340°
2026-05-05 23:02 9.24831 139.83293 33893 ft 503 kts 340°
2026-05-05 23:03 9.31324 139.80681 33895 ft 502 kts 339°
2026-05-05 23:03 9.37815 139.78067 33891 ft 502 kts 340°
2026-05-05 23:04 9.44299 139.75456 33898 ft 501 kts 340°
2026-05-05 23:04 9.50733 139.72864 33894 ft 501 kts 340°
2026-05-05 23:05 9.57200 139.70258 33900 ft 499 kts 340°
2026-05-05 23:05 9.63646 139.67659 33896 ft 498 kts 340°
2026-05-05 23:06 9.70070 139.65068 33891 ft 496 kts 340°
2026-05-05 23:06 9.76436 139.62499 33891 ft 495 kts 340°
2026-05-05 23:07 9.82831 139.59917 33904 ft 494 kts 339°
2026-05-05 23:07 9.89204 139.57344 33900 ft 492 kts 339°
2026-05-05 23:08 9.95562 139.54775 33896 ft 491 kts 339°
2026-05-05 23:08 10.01863 139.52228 33899 ft 491 kts 339°
2026-05-05 23:09 10.08189 139.49670 33906 ft 490 kts 339°
2026-05-05 23:09 10.14524 139.47107 33895 ft 489 kts 339°
2026-05-05 23:10 10.20836 139.44553 33894 ft 488 kts 339°
2026-05-05 23:10 10.27146 139.41998 33904 ft 488 kts 339°
2026-05-05 23:11 10.33406 139.39462 33904 ft 487 kts 339°
2026-05-05 23:11 10.39700 139.36912 33905 ft 487 kts 339°
2026-05-05 23:12 10.46001 139.34357 33902 ft 488 kts 339°
2026-05-05 23:12 10.52303 139.31801 33904 ft 488 kts 339°
2026-05-05 23:13 10.58564 139.29261 33906 ft 488 kts 339°
2026-05-05 23:13 10.64872 139.26701 33909 ft 488 kts 338°
2026-05-05 23:14 10.71181 139.24138 33909 ft 488 kts 338°
2026-05-05 23:14 10.77485 139.21576 33905 ft 488 kts 338°
2026-05-05 23:15 10.83742 139.19033 33901 ft 487 kts 338°
2026-05-05 23:15 10.90036 139.16474 33910 ft 487 kts 338°
2026-05-05 23:16 10.96328 139.13914 33912 ft 487 kts 338°
2026-05-05 23:16 11.02617 139.11354 33915 ft 486 kts 338°
2026-05-05 23:17 11.08897 139.08796 33906 ft 486 kts 338°
2026-05-05 23:17 11.15134 139.06256 33904 ft 486 kts 338°
2026-05-05 23:18 11.21418 139.03694 33922 ft 486 kts 338°
2026-05-05 23:18 11.27695 139.01134 33915 ft 486 kts 338°
2026-05-05 23:19 11.33966 138.98575 33907 ft 485 kts 338°
2026-05-05 23:19 11.40192 138.96034 33911 ft 486 kts 338°
2026-05-05 23:20 11.46467 138.93472 33919 ft 486 kts 337°
2026-05-05 23:20 11.52740 138.90908 33918 ft 485 kts 337°
2026-05-05 23:21 11.59006 138.88347 33916 ft 485 kts 337°
2026-05-05 23:21 11.65218 138.85806 33910 ft 484 kts 337°
2026-05-05 23:22 11.71485 138.83242 33911 ft 485 kts 337°
2026-05-05 23:22 11.77752 138.80676 33911 ft 486 kts 337°
2026-05-05 23:23 11.84015 138.78111 33917 ft 485 kts 337°
2026-05-05 23:23 11.90277 138.75545 33915 ft 485 kts 337°
2026-05-05 23:24 11.96497 138.72995 33924 ft 485 kts 337°
2026-05-05 23:24 12.02761 138.70425 33922 ft 485 kts 337°
2026-05-05 23:25 12.09009 138.67860 33923 ft 484 kts 337°
2026-05-05 23:25 12.15269 138.65289 33916 ft 484 kts 337°
2026-05-05 23:26 12.21459 138.62713 33916 ft 484 kts 336°
2026-05-05 23:26 12.27679 138.60067 33928 ft 484 kts 336°
2026-05-05 23:27 12.33905 138.57413 33925 ft 485 kts 336°
2026-05-05 23:27 12.40130 138.54766 33928 ft 484 kts 336°
2026-05-05 23:28 12.46308 138.52142 33925 ft 484 kts 336°
2026-05-05 23:28 12.52525 138.49501 33925 ft 484 kts 336°
2026-05-05 23:29 12.58738 138.46860 33929 ft 483 kts 336°
2026-05-05 23:29 12.64948 138.44219 33930 ft 483 kts 336°
2026-05-05 23:30 12.71104 138.41599 33936 ft 482 kts 336°
2026-05-05 23:30 12.77295 138.38963 33934 ft 482 kts 336°
2026-05-05 23:31 12.83483 138.36327 33925 ft 482 kts 336°
2026-05-05 23:31 12.89677 138.33687 33930 ft 482 kts 336°
2026-05-05 23:32 12.95831 138.31062 33935 ft 483 kts 336°
2026-05-05 23:32 13.02028 138.28418 33939 ft 482 kts 335°
2026-05-05 23:33 13.08226 138.25772 33935 ft 483 kts 335°
2026-05-05 23:33 13.14422 138.23125 33933 ft 483 kts 336°
2026-05-05 23:34 13.20627 138.20474 33941 ft 483 kts 335°
2026-05-05 23:34 13.26789 138.17838 33937 ft 483 kts 336°
2026-05-05 23:35 13.32990 138.15185 33942 ft 483 kts 335°
2026-05-05 23:35 13.39189 138.12531 33938 ft 482 kts 336°
2026-05-05 23:36 13.45384 138.09878 33944 ft 482 kts 335°
2026-05-05 23:36 13.51533 138.07242 33940 ft 482 kts 335°
2026-05-05 23:37 13.57719 138.04590 33944 ft 482 kts 335°
2026-05-05 23:37 13.63906 138.01935 33942 ft 482 kts 335°
2026-05-05 23:38 13.70086 137.99282 33947 ft 481 kts 335°
2026-05-05 23:38 13.76220 137.96647 33945 ft 481 kts 335°
2026-05-05 23:39 13.82387 137.93997 33944 ft 480 kts 335°
2026-05-05 23:39 13.88556 137.91343 33946 ft 480 kts 335°
2026-05-05 23:40 13.94722 137.88690 33951 ft 480 kts 335°
2026-05-05 23:40 14.00882 137.86038 33947 ft 480 kts 335°
2026-05-05 23:41 14.06993 137.83405 33949 ft 479 kts 335°
2026-05-05 23:41 14.13149 137.80752 33951 ft 479 kts 335°
2026-05-05 23:42 14.19304 137.78097 33950 ft 480 kts 335°
2026-05-05 23:42 14.25416 137.75459 33951 ft 480 kts 335°
2026-05-05 23:43 14.31579 137.72798 33953 ft 480 kts 335°
2026-05-05 23:43 14.37742 137.70135 33952 ft 480 kts 335°
2026-05-05 23:44 14.43908 137.67469 33958 ft 480 kts 335°
2026-05-05 23:44 14.50029 137.64821 33955 ft 480 kts 335°
2026-05-05 23:45 14.56185 137.62157 33952 ft 480 kts 335°
2026-05-05 23:45 14.62335 137.59493 33963 ft 479 kts 335°
2026-05-05 23:46 14.68480 137.56830 33960 ft 479 kts 335°
2026-05-05 23:46 14.74626 137.54165 33960 ft 479 kts 335°
2026-05-05 23:47 14.80725 137.51518 33961 ft 479 kts 335°
2026-05-05 23:47 14.86864 137.48853 33973 ft 479 kts 335°
2026-05-05 23:48 14.93005 137.46185 33965 ft 479 kts 335°
2026-05-05 23:48 14.99141 137.43517 33964 ft 478 kts 335°
2026-05-05 23:49 15.05277 137.40848 33965 ft 478 kts 335°
2026-05-05 23:49 15.11370 137.38196 33963 ft 478 kts 335°
2026-05-05 23:50 15.17503 137.35525 33969 ft 478 kts 335°
2026-05-05 23:50 15.23638 137.32851 33971 ft 478 kts 335°
2026-05-05 23:51 15.29775 137.30175 33971 ft 479 kts 335°
2026-05-05 23:51 15.35874 137.27514 33973 ft 479 kts 335°
2026-05-05 23:52 15.42001 137.24838 33972 ft 479 kts 335°
2026-05-05 23:52 15.48163 137.22146 33975 ft 479 kts 335°
2026-05-05 23:53 15.54290 137.19467 33974 ft 479 kts 335°
2026-05-05 23:53 15.60449 137.16773 33974 ft 479 kts 335°
2026-05-05 23:54 15.66545 137.14104 33977 ft 479 kts 335°
2026-05-05 23:54 15.72688 137.11413 33978 ft 479 kts 335°
2026-05-05 23:55 15.78817 137.08726 33978 ft 479 kts 335°
2026-05-05 23:55 15.84954 137.06035 33988 ft 478 kts 335°
2026-05-05 23:56 15.91040 137.03363 33976 ft 478 kts 335°
2026-05-05 23:56 15.97161 137.00675 33978 ft 477 kts 335°
2026-05-05 23:57 16.03272 136.97989 33985 ft 477 kts 335°
2026-05-05 23:57 16.09381 136.95302 33987 ft 477 kts 335°
2026-05-05 23:58 16.15487 136.92614 33986 ft 476 kts 335°
2026-05-05 23:58 16.21550 136.89944 33989 ft 477 kts 335°
2026-05-05 23:59 16.27657 136.87253 33989 ft 477 kts 335°
2026-05-05 23:59 16.33769 136.84557 33989 ft 477 kts 335°
2026-05-06 00:00 16.39876 136.81863 33990 ft 477 kts 335°
2026-05-06 00:00 16.45936 136.79186 33992 ft 477 kts 335°
2026-05-06 00:01 16.52052 136.76483 33988 ft 477 kts 335°
2026-05-06 00:01 16.58160 136.73782 33993 ft 477 kts 335°
2026-05-06 00:02 16.64281 136.71072 33995 ft 478 kts 335°
2026-05-06 00:02 16.70435 136.68426 33994 ft 479 kts 337°
2026-05-06 00:03 16.76635 136.66007 33999 ft 479 kts 338°
2026-05-06 00:03 16.82887 136.63599 33994 ft 479 kts 337°
2026-05-06 00:04 16.89106 136.61169 33993 ft 478 kts 337°
2026-05-06 00:04 16.95334 136.58711 33997 ft 478 kts 337°
2026-05-06 00:05 17.04642 136.55027 33998 ft 478 kts 337°
2026-05-06 00:06 17.10870 136.52561 34004 ft 479 kts 337°
2026-05-06 00:06 17.17104 136.50092 34003 ft 479 kts 337°
2026-05-06 00:07 17.23299 136.47637 34002 ft 479 kts 337°
2026-05-06 00:07 17.29538 136.45162 34005 ft 480 kts 337°
2026-05-06 00:08 17.35779 136.42685 34003 ft 480 kts 337°
2026-05-06 00:08 17.42018 136.40207 34008 ft 480 kts 337°
2026-05-06 00:09 17.48254 136.37729 34007 ft 479 kts 337°
2026-05-06 00:09 17.54447 136.35265 34007 ft 479 kts 337°
2026-05-06 00:10 17.60682 136.32783 34008 ft 479 kts 337°
2026-05-06 00:10 17.66915 136.30300 34015 ft 479 kts 337°
2026-05-06 00:11 17.73146 136.27816 34007 ft 479 kts 337°
2026-05-06 00:11 17.79335 136.25347 34014 ft 479 kts 337°
2026-05-06 00:12 17.85564 136.22860 34017 ft 479 kts 337°
2026-05-06 00:12 17.91795 136.20370 34016 ft 479 kts 337°
2026-05-06 00:13 17.98024 136.17880 34019 ft 479 kts 337°
2026-05-06 00:13 18.04212 136.15404 34014 ft 479 kts 337°
2026-05-06 00:14 18.10443 136.12908 34023 ft 479 kts 337°
2026-05-06 00:14 18.16679 136.10409 34019 ft 480 kts 337°
2026-05-06 00:15 18.22917 136.07907 34016 ft 480 kts 337°
2026-05-06 00:15 18.29118 136.05418 34020 ft 480 kts 337°
2026-05-06 00:16 18.35360 136.02910 34020 ft 481 kts 337°
2026-05-06 00:16 18.41609 136.00399 34018 ft 481 kts 337°
2026-05-06 00:17 18.47860 135.97884 34023 ft 481 kts 337°
2026-05-06 00:17 18.54053 135.95390 34019 ft 481 kts 337°
2026-05-06 00:18 18.60330 135.92861 34029 ft 482 kts 337°
2026-05-06 00:18 18.66592 135.90336 34028 ft 482 kts 337°
2026-05-06 00:19 18.72853 135.87809 34028 ft 482 kts 337°
2026-05-06 00:19 18.79117 135.85279 34027 ft 482 kts 337°
2026-05-06 00:20 18.85334 135.82766 34026 ft 482 kts 337°
2026-05-06 00:20 18.91597 135.80232 34027 ft 482 kts 337°
2026-05-06 00:21 18.97861 135.77696 34026 ft 482 kts 337°
2026-05-06 00:21 19.04120 135.75160 34027 ft 482 kts 337°
2026-05-06 00:22 19.10348 135.72634 34029 ft 483 kts 337°
2026-05-06 00:22 19.16622 135.70087 34032 ft 483 kts 337°
2026-05-06 00:23 19.22904 135.67536 34033 ft 484 kts 337°
2026-05-06 00:23 19.29199 135.64977 34031 ft 485 kts 337°
2026-05-06 00:24 19.35454 135.62432 34033 ft 485 kts 336°
2026-05-06 00:24 19.41750 135.59869 34033 ft 485 kts 336°
2026-05-06 00:25 19.48049 135.57301 34026 ft 485 kts 337°
2026-05-06 00:25 19.54354 135.54729 34033 ft 486 kts 337°
2026-05-06 00:26 19.60659 135.52156 34035 ft 486 kts 336°
2026-05-06 00:26 19.66927 135.49596 34033 ft 486 kts 336°
2026-05-06 00:27 19.73242 135.47013 34033 ft 487 kts 336°
2026-05-06 00:27 19.79563 135.44426 34037 ft 487 kts 336°
2026-05-06 00:28 19.85870 135.41843 34040 ft 487 kts 336°
2026-05-06 00:28 19.92172 135.39259 34039 ft 488 kts 336°
2026-05-06 00:29 19.98501 135.36661 34038 ft 488 kts 336°
2026-05-06 00:29 20.04828 135.34064 34039 ft 488 kts 336°
2026-05-06 00:30 20.11183 135.31452 34042 ft 489 kts 336°
2026-05-06 00:30 20.17486 135.28859 34044 ft 489 kts 336°
2026-05-06 00:31 20.23835 135.26245 34041 ft 489 kts 336°
2026-05-06 00:31 20.30184 135.23628 34043 ft 489 kts 336°
2026-05-06 00:32 20.36536 135.21009 34044 ft 490 kts 336°
2026-05-06 00:32 20.42850 135.18402 34043 ft 490 kts 336°
2026-05-06 00:33 20.49207 135.15775 34047 ft 490 kts 336°
2026-05-06 00:33 20.55568 135.13144 34040 ft 491 kts 336°
2026-05-06 00:34 20.61933 135.10509 34048 ft 491 kts 336°
2026-05-06 00:34 20.68261 135.07888 34047 ft 491 kts 336°
2026-05-06 00:35 20.74630 135.05247 34049 ft 491 kts 336°
2026-05-06 00:35 20.80999 135.02603 34048 ft 492 kts 336°
2026-05-06 00:36 20.87382 134.99951 34053 ft 492 kts 336°
2026-05-06 00:36 20.93756 134.97300 34044 ft 492 kts 336°
2026-05-06 00:36 20.96841 134.95795 34037 ft 485 kts 325°
2026-05-06 00:37 20.99395 134.93572 34068 ft 478 kts 310°
2026-05-06 00:37 21.01411 134.90766 34052 ft 475 kts 298°
2026-05-06 00:37 21.02765 134.87578 34046 ft 469 kts 288°
2026-05-06 00:38 21.05025 134.80991 34058 ft 473 kts 289°
2026-05-06 00:38 21.07374 134.74391 34056 ft 476 kts 289°
2026-05-06 00:39 21.09770 134.67760 34046 ft 478 kts 289°
2026-05-06 00:39 21.12165 134.61152 34049 ft 479 kts 289°
2026-05-06 00:40 21.14573 134.54494 34047 ft 479 kts 289°
2026-05-06 00:40 21.16973 134.47845 34047 ft 478 kts 289°
2026-05-06 00:41 21.19361 134.41217 34057 ft 476 kts 289°
2026-05-06 00:41 21.21720 134.34659 34048 ft 475 kts 289°
2026-05-06 00:42 21.24091 134.28057 34037 ft 473 kts 289°
2026-05-06 00:42 21.26452 134.21474 34043 ft 473 kts 289°
2026-05-06 00:43 21.28806 134.14901 34043 ft 472 kts 289°
2026-05-06 00:43 21.31139 134.08377 34045 ft 472 kts 289°
2026-05-06 00:44 21.33485 134.01808 34048 ft 472 kts 289°
2026-05-06 00:44 21.35829 133.95238 34043 ft 472 kts 289°
2026-05-06 00:45 21.38171 133.88662 34040 ft 472 kts 289°
2026-05-06 00:45 21.40494 133.82130 34044 ft 472 kts 289°
2026-05-06 00:46 21.42829 133.75556 34036 ft 471 kts 289°
2026-05-06 00:46 21.45158 133.68989 34036 ft 471 kts 289°
2026-05-06 00:47 21.47484 133.62421 34037 ft 471 kts 288°
2026-05-06 00:47 21.49798 133.55877 34032 ft 470 kts 288°
2026-05-06 00:48 21.52106 133.49342 34038 ft 470 kts 288°
2026-05-06 00:48 21.54424 133.42768 34047 ft 470 kts 288°
2026-05-06 00:49 21.56715 133.36262 34034 ft 469 kts 288°
2026-05-06 00:49 21.59022 133.29702 34033 ft 469 kts 288°
2026-05-06 00:50 21.61325 133.23142 34038 ft 469 kts 288°
2026-05-06 00:50 21.63629 133.16571 34035 ft 469 kts 288°
2026-05-06 00:51 21.65926 133.10010 34030 ft 469 kts 288°
2026-05-06 00:51 21.68218 133.03453 34037 ft 469 kts 288°
2026-05-06 00:52 21.70509 132.96894 34036 ft 468 kts 288°
2026-05-06 00:52 21.72778 132.90383 34036 ft 468 kts 288°
2026-05-06 00:53 21.75061 132.83826 34041 ft 468 kts 288°
2026-05-06 00:53 21.77340 132.77268 34036 ft 468 kts 288°
2026-05-06 00:54 21.79617 132.70709 34032 ft 468 kts 288°
2026-05-06 00:54 21.81875 132.64193 34031 ft 468 kts 288°
2026-05-06 00:55 21.84118 132.57712 34038 ft 468 kts 288°
2026-05-06 00:55 21.86355 132.51240 34031 ft 468 kts 288°
2026-05-06 00:56 21.88621 132.44674 34027 ft 468 kts 288°
2026-05-06 00:56 21.90863 132.38169 34037 ft 467 kts 288°
2026-05-06 00:57 21.93124 132.31597 34028 ft 467 kts 288°
2026-05-06 00:57 21.95379 132.25035 34028 ft 467 kts 288°
2026-05-06 00:58 21.97628 132.18477 34035 ft 467 kts 288°
2026-05-06 00:58 21.99860 132.11963 34029 ft 467 kts 288°
2026-05-06 00:59 22.02105 132.05400 34028 ft 467 kts 288°
2026-05-06 00:59 22.04348 131.98833 34028 ft 467 kts 288°
2026-05-06 01:00 22.06588 131.92265 34029 ft 467 kts 288°
2026-05-06 01:00 22.08826 131.85693 34028 ft 467 kts 288°
2026-05-06 01:01 22.11046 131.79162 34027 ft 467 kts 288°
2026-05-06 01:01 22.13279 131.72588 34030 ft 467 kts 287°
2026-05-06 01:02 22.15509 131.66008 34021 ft 467 kts 287°
2026-05-06 01:02 22.17735 131.59432 34022 ft 467 kts 287°
2026-05-06 01:03 22.19942 131.52904 34025 ft 466 kts 287°
2026-05-06 01:03 22.22158 131.46337 34023 ft 465 kts 287°
2026-05-06 01:04 22.24368 131.39779 34024 ft 465 kts 287°
2026-05-06 01:04 22.26573 131.33227 34023 ft 464 kts 287°
2026-05-06 01:05 22.28755 131.26732 34022 ft 463 kts 287°
2026-05-06 01:05 22.30946 131.20201 34023 ft 462 kts 287°
2026-05-06 01:06 22.33131 131.13675 34020 ft 462 kts 287°
2026-05-06 01:06 22.35312 131.07154 34020 ft 461 kts 287°
2026-05-06 01:07 22.37474 131.00681 34015 ft 461 kts 287°
2026-05-06 01:07 22.39647 130.94172 34020 ft 460 kts 287°
2026-05-06 01:08 22.41817 130.87667 34021 ft 460 kts 287°
2026-05-06 01:08 22.43983 130.81164 34015 ft 460 kts 287°
2026-05-06 01:09 22.46145 130.74663 34018 ft 459 kts 287°
2026-05-06 01:09 22.48289 130.68203 34021 ft 459 kts 287°
2026-05-06 01:10 22.50445 130.61701 34014 ft 459 kts 287°
2026-05-06 01:10 22.52597 130.55196 34021 ft 459 kts 286°
2026-05-06 01:11 22.54748 130.48687 34016 ft 460 kts 286°
2026-05-06 01:11 22.56882 130.42219 34015 ft 460 kts 286°
2026-05-06 01:12 22.59030 130.35700 34013 ft 460 kts 286°
2026-05-06 01:12 22.61174 130.29184 34004 ft 460 kts 286°
2026-05-06 01:13 22.63314 130.22668 34020 ft 459 kts 286°
2026-05-06 01:13 22.65437 130.16195 34013 ft 459 kts 286°
2026-05-06 01:14 22.68636 130.06419 34014 ft 459 kts 286°
2026-05-06 01:14 22.70765 129.99902 34006 ft 459 kts 286°
2026-05-06 01:15 22.72890 129.93385 34006 ft 459 kts 286°
2026-05-06 01:15 22.74998 129.86912 34017 ft 459 kts 286°
2026-05-06 01:16 22.77119 129.80390 34018 ft 459 kts 285°
2026-05-06 01:16 22.79236 129.73868 34004 ft 459 kts 285°
2026-05-06 01:17 22.81352 129.67339 34003 ft 459 kts 285°
2026-05-06 01:17 22.83451 129.60855 34011 ft 459 kts 285°
2026-05-06 01:18 22.85562 129.54322 34015 ft 459 kts 285°
2026-05-06 01:18 22.87671 129.47783 34005 ft 459 kts 285°
2026-05-06 01:19 22.89777 129.41244 34014 ft 459 kts 285°
2026-05-06 01:19 22.91866 129.34749 34013 ft 459 kts 285°
2026-05-06 01:20 22.93964 129.28216 34004 ft 458 kts 285°
2026-05-06 01:20 22.96055 129.21693 34001 ft 457 kts 285°
2026-05-06 01:21 22.98137 129.15187 34005 ft 457 kts 285°
2026-05-06 01:21 23.00253 129.08687 34013 ft 457 kts 287°
2026-05-06 01:22 23.03029 129.02493 34005 ft 460 kts 293°
2026-05-06 01:22 23.06012 128.96364 34002 ft 460 kts 292°
2026-05-06 01:23 23.08979 128.90211 34000 ft 460 kts 292°
2026-05-06 01:23 23.11934 128.84043 34003 ft 459 kts 292°
2026-05-06 01:24 23.14855 128.77925 33998 ft 459 kts 292°
2026-05-06 01:24 23.17793 128.71765 33999 ft 459 kts 292°
2026-05-06 01:25 23.20727 128.65608 34009 ft 459 kts 292°
2026-05-06 01:25 23.23659 128.59445 34002 ft 459 kts 292°
2026-05-06 01:26 23.26573 128.53314 34000 ft 459 kts 292°
2026-05-06 01:26 23.29505 128.47137 34035 ft 462 kts 292°
2026-05-06 01:27 23.30979 128.44027 34304 ft 462 kts 292°
2026-05-06 01:27 23.32448 128.40930 34709 ft 459 kts 292°
2026-05-06 01:27 23.33906 128.37855 35133 ft 456 kts 292°
2026-05-06 01:27 23.35354 128.34800 35541 ft 453 kts 292°
2026-05-06 01:28 23.36775 128.31798 35897 ft 451 kts 292°
2026-05-06 01:28 23.38215 128.28749 35986 ft 456 kts 292°
2026-05-06 01:28 23.41117 128.22597 35993 ft 456 kts 292°
2026-05-06 01:29 23.43994 128.16505 35997 ft 449 kts 292°
2026-05-06 01:29 23.46839 128.10469 35995 ft 446 kts 292°
2026-05-06 01:30 23.49645 128.04505 35998 ft 445 kts 292°
2026-05-06 01:30 23.52466 127.98497 35999 ft 446 kts 292°
2026-05-06 01:31 23.55291 127.92477 36008 ft 447 kts 292°
2026-05-06 01:31 23.58117 127.86447 36001 ft 448 kts 292°
2026-05-06 01:32 23.60940 127.80417 35998 ft 449 kts 292°
2026-05-06 01:32 23.63784 127.74337 36007 ft 450 kts 292°
2026-05-06 01:33 23.66629 127.68245 36009 ft 451 kts 292°
2026-05-06 01:33 23.69471 127.62154 35997 ft 450 kts 292°
2026-05-06 01:34 23.72305 127.56071 35995 ft 449 kts 292°
2026-05-06 01:34 23.75110 127.50042 35996 ft 448 kts 292°
2026-05-06 01:35 23.77925 127.43985 35998 ft 447 kts 292°
2026-05-06 01:35 23.80731 127.37936 35996 ft 446 kts 292°
2026-05-06 01:36 23.83530 127.31897 35997 ft 445 kts 292°
2026-05-06 01:36 23.85854 127.26877 35998 ft 445 kts 292°
2026-05-06 01:37 23.89097 127.19863 36004 ft 445 kts 292°
2026-05-06 01:37 23.91885 127.13824 35997 ft 445 kts 292°
2026-05-06 01:38 23.94205 127.08791 35998 ft 446 kts 292°
2026-05-06 01:38 23.96992 127.02741 35997 ft 446 kts 292°
2026-05-06 01:39 24.00234 126.95693 35999 ft 447 kts 292°
2026-05-06 01:39 24.03025 126.89617 35997 ft 447 kts 292°
2026-05-06 01:40 24.05346 126.84557 36000 ft 448 kts 292°
2026-05-06 01:40 24.08140 126.78458 36005 ft 449 kts 292°
2026-05-06 01:41 24.11391 126.71353 35994 ft 450 kts 292°
2026-05-06 01:41 24.13741 126.66276 36003 ft 451 kts 293°
2026-05-06 01:42 24.16728 126.59985 36001 ft 453 kts 293°
2026-05-06 01:42 24.19642 126.53856 36002 ft 454 kts 293°
2026-05-06 01:43 24.22549 126.47709 36008 ft 455 kts 293°
2026-05-06 01:43 24.25433 126.41593 36008 ft 457 kts 293°
2026-05-06 01:44 24.28357 126.35382 36008 ft 458 kts 293°
2026-05-06 01:44 24.31280 126.29163 36005 ft 460 kts 293°
2026-05-06 01:45 24.34203 126.22938 36014 ft 461 kts 293°
2026-05-06 01:45 24.37122 126.16714 36007 ft 462 kts 293°
2026-05-06 01:46 24.40060 126.10441 36005 ft 462 kts 293°
2026-05-06 01:46 24.42995 126.04166 36001 ft 463 kts 293°
2026-05-06 01:47 24.45931 125.97881 36004 ft 462 kts 293°
2026-05-06 01:47 24.48836 125.91653 36007 ft 461 kts 293°
2026-05-06 01:48 24.51754 125.85388 36004 ft 461 kts 293°
2026-05-06 01:48 24.54683 125.79087 36043 ft 468 kts 293°
2026-05-06 01:49 24.57621 125.72766 36008 ft 459 kts 292°
2026-05-06 01:49 24.60485 125.66598 35988 ft 454 kts 292°
2026-05-06 01:50 24.63360 125.60385 36015 ft 461 kts 292°
2026-05-06 01:50 24.66283 125.54061 36004 ft 465 kts 292°
2026-05-06 01:51 24.69212 125.47724 36003 ft 465 kts 292°
2026-05-06 01:51 24.72123 125.41416 36030 ft 468 kts 292°
2026-05-06 01:52 24.75073 125.35037 35959 ft 462 kts 295°
2026-05-06 01:52 24.76969 125.32181 35983 ft 468 kts 311°
2026-05-06 01:52 24.79548 125.29949 35998 ft 478 kts 323°
2026-05-06 01:53 24.82564 125.28313 36016 ft 490 kts 336°
2026-05-06 01:53 24.85912 125.27452 36006 ft 497 kts 346°
2026-05-06 01:53 24.92751 125.26285 36009 ft 504 kts 347°
2026-05-06 01:54 24.99708 125.25107 36010 ft 508 kts 346°
2026-05-06 01:54 25.06698 125.23829 36008 ft 511 kts 346°
2026-05-06 01:55 25.13713 125.22497 36005 ft 513 kts 346°
2026-05-06 01:55 25.20760 125.21150 36015 ft 515 kts 346°
2026-05-06 01:56 25.27794 125.19810 36006 ft 516 kts 346°
2026-05-06 01:56 25.34879 125.18463 36021 ft 517 kts 346°
2026-05-06 01:57 25.41990 125.17108 36005 ft 522 kts 346°
2026-05-06 01:57 25.49134 125.15746 35993 ft 520 kts 346°
2026-05-06 01:58 25.56193 125.14400 35999 ft 517 kts 346°
2026-05-06 01:58 25.63270 125.13047 36029 ft 515 kts 346°
2026-05-06 01:59 25.70325 125.11696 36012 ft 516 kts 346°
2026-05-06 01:59 25.77424 125.10335 36011 ft 517 kts 346°
2026-05-06 02:00 25.84478 125.08981 36010 ft 519 kts 346°
2026-05-06 02:00 25.91575 125.07618 36029 ft 520 kts 346°
2026-05-06 02:01 25.98757 125.06236 36024 ft 523 kts 346°
2026-05-06 02:01 26.05953 125.04850 36023 ft 526 kts 346°
2026-05-06 02:02 26.13174 125.03458 36030 ft 528 kts 346°
2026-05-06 02:02 26.20376 125.02068 36032 ft 530 kts 346°
2026-05-06 02:03 26.27630 125.00576 36021 ft 528 kts 340°
2026-05-06 02:03 26.34340 124.97567 36036 ft 515 kts 325°
2026-05-06 02:04 26.37340 124.95487 36015 ft 501 kts 317°
2026-05-06 02:04 26.40075 124.93124 36020 ft 495 kts 315°
2026-05-06 02:04 26.45470 124.88357 36032 ft 495 kts 315°
2026-05-06 02:05 26.50857 124.83644 36034 ft 496 kts 316°
2026-05-06 02:05 26.56316 124.78919 36033 ft 497 kts 316°
2026-05-06 02:06 26.61788 124.74193 36033 ft 498 kts 316°
2026-05-06 02:06 26.67264 124.69456 36034 ft 498 kts 316°
2026-05-06 02:07 26.72684 124.64759 36036 ft 495 kts 316°
2026-05-06 02:07 26.78110 124.60048 36030 ft 493 kts 316°
2026-05-06 02:08 26.83527 124.55339 36051 ft 492 kts 316°
2026-05-06 02:08 26.88926 124.50639 36042 ft 491 kts 316°
2026-05-06 02:09 26.94284 124.45969 36059 ft 491 kts 316°
2026-05-06 02:09 26.99777 124.41398 36040 ft 495 kts 321°
2026-05-06 02:10 27.05605 124.37267 36045 ft 496 kts 322°
2026-05-06 02:10 27.11453 124.33175 36070 ft 495 kts 322°
2026-05-06 02:11 27.17293 124.29042 36053 ft 496 kts 322°
2026-05-06 02:11 27.23086 124.24914 36050 ft 497 kts 322°
2026-05-06 02:12 27.28925 124.20740 36067 ft 497 kts 322°
2026-05-06 02:12 27.34754 124.16571 36040 ft 495 kts 322°
2026-05-06 02:13 27.40554 124.12419 36039 ft 493 kts 322°
2026-05-06 02:13 27.46283 124.08312 36053 ft 491 kts 323°
2026-05-06 02:14 27.52031 124.04186 36048 ft 489 kts 323°
2026-05-06 02:14 27.57764 124.00065 36053 ft 489 kts 323°
2026-05-06 02:15 27.63493 123.95942 36054 ft 489 kts 323°
2026-05-06 02:15 27.69217 123.91818 36063 ft 487 kts 324°
2026-05-06 02:16 27.74872 123.87739 36068 ft 484 kts 324°
2026-05-06 02:16 27.80537 123.83648 36057 ft 482 kts 324°
2026-05-06 02:17 27.86172 123.79572 36054 ft 480 kts 324°
2026-05-06 02:17 27.91783 123.75507 36058 ft 479 kts 324°
2026-05-06 02:18 27.97351 123.71470 36065 ft 479 kts 324°
2026-05-06 02:18 28.03101 123.67654 36060 ft 481 kts 330°
2026-05-06 02:19 28.09075 123.64278 36069 ft 478 kts 332°
2026-05-06 02:19 28.15020 123.60928 36058 ft 475 kts 331°
2026-05-06 02:20 28.23795 123.55924 36061 ft 471 kts 331°
2026-05-06 02:21 28.29627 123.52578 36066 ft 469 kts 331°
2026-05-06 02:21 28.35445 123.49235 36084 ft 469 kts 332°
2026-05-06 02:22 28.41275 123.45883 36071 ft 469 kts 332°
2026-05-06 02:22 28.47096 123.42533 36071 ft 469 kts 332°
2026-05-06 02:23 28.52877 123.39202 36069 ft 469 kts 332°
2026-05-06 02:23 28.58698 123.35843 36072 ft 469 kts 332°
2026-05-06 02:24 28.64522 123.32479 36084 ft 469 kts 332°
2026-05-06 02:24 28.70369 123.29096 35337 ft 481 kts 332°
2026-05-06 02:24 28.73320 123.27387 34561 ft 482 kts 332°
2026-05-06 02:25 28.76314 123.25653 33616 ft 483 kts 332°
2026-05-06 02:25 28.79312 123.23914 32623 ft 484 kts 333°
2026-05-06 02:25 28.82311 123.22175 31652 ft 484 kts 333°
2026-05-06 02:25 28.85290 123.20446 30728 ft 483 kts 333°
2026-05-06 02:26 28.88288 123.18705 29989 ft 478 kts 333°
2026-05-06 02:26 28.91234 123.16993 29156 ft 473 kts 334°
2026-05-06 02:26 28.94145 123.15300 28407 ft 466 kts 334°
2026-05-06 02:26 28.96977 123.13652 27740 ft 459 kts 334°
2026-05-06 02:27 28.99804 123.12005 27066 ft 454 kts 334°
2026-05-06 02:27 29.02603 123.10374 26412 ft 449 kts 334°
2026-05-06 02:27 29.05368 123.08762 25770 ft 444 kts 334°
2026-05-06 02:27 29.08106 123.07165 25138 ft 440 kts 334°
2026-05-06 02:28 29.10821 123.05580 24500 ft 437 kts 334°
2026-05-06 02:28 29.13518 123.04006 23869 ft 434 kts 334°
2026-05-06 02:28 29.16198 123.02440 23188 ft 431 kts 334°
2026-05-06 02:28 29.18853 123.00887 22534 ft 426 kts 334°
2026-05-06 02:29 29.21445 122.99370 21926 ft 422 kts 334°
2026-05-06 02:29 29.24046 122.97847 21337 ft 418 kts 334°
2026-05-06 02:29 29.26619 122.96340 20763 ft 414 kts 334°
2026-05-06 02:29 29.29169 122.94846 20201 ft 410 kts 333°
2026-05-06 02:30 29.31698 122.93363 19649 ft 407 kts 333°
2026-05-06 02:30 29.34208 122.91890 19090 ft 404 kts 333°
2026-05-06 02:30 29.36694 122.90431 18539 ft 402 kts 333°
2026-05-06 02:30 29.39188 122.88966 17913 ft 400 kts 333°
2026-05-06 02:31 29.41628 122.87532 17330 ft 398 kts 333°
2026-05-06 02:31 29.44081 122.86090 16779 ft 395 kts 333°
2026-05-06 02:31 29.46519 122.84656 16234 ft 393 kts 333°
2026-05-06 02:31 29.48943 122.83229 15704 ft 391 kts 333°
2026-05-06 02:32 29.51356 122.81808 15169 ft 389 kts 333°
2026-05-06 02:32 29.53758 122.80392 14643 ft 388 kts 333°
2026-05-06 02:32 29.56154 122.78979 14117 ft 387 kts 332°
2026-05-06 02:32 29.58539 122.77572 13542 ft 387 kts 332°
2026-05-06 02:33 29.60903 122.76177 13001 ft 385 kts 332°
2026-05-06 02:33 29.62511 122.75227 12638 ft 384 kts 332°
2026-05-06 02:33 29.68007 122.71979 11432 ft 380 kts 332°
2026-05-06 02:34 29.70350 122.70593 11081 ft 374 kts 332°
2026-05-06 02:34 29.72629 122.69245 10920 ft 363 kts 332°
2026-05-06 02:34 29.74848 122.67932 10755 ft 354 kts 332°
2026-05-06 02:34 29.77005 122.66654 10601 ft 344 kts 332°
2026-05-06 02:35 29.79083 122.65422 10434 ft 336 kts 332°
2026-05-06 02:35 29.81139 122.64203 10284 ft 328 kts 332°
2026-05-06 02:35 29.83142 122.63015 10141 ft 320 kts 332°
2026-05-06 02:35 29.85099 122.61854 9968 ft 313 kts 332°
2026-05-06 02:36 29.86996 122.60727 9737 ft 297 kts 332°
2026-05-06 02:36 29.88792 122.59661 9327 ft 288 kts 332°
2026-05-06 02:36 29.90561 122.58608 8965 ft 284 kts 332°
2026-05-06 02:36 29.92309 122.57569 8627 ft 281 kts 332°
2026-05-06 02:37 29.94031 122.56544 8304 ft 277 kts 332°
2026-05-06 02:37 29.95704 122.55548 7991 ft 272 kts 332°
2026-05-06 02:37 29.97368 122.54558 7684 ft 268 kts 333°
2026-05-06 02:37 29.99019 122.53574 7373 ft 264 kts 333°
2026-05-06 02:38 30.00650 122.52603 7076 ft 265 kts 333°
2026-05-06 02:38 30.02296 122.51622 6784 ft 268 kts 333°
2026-05-06 02:38 30.03963 122.50628 6479 ft 272 kts 333°
2026-05-06 02:38 30.05653 122.49620 6154 ft 275 kts 333°
2026-05-06 02:39 30.07347 122.48610 5820 ft 272 kts 333°
2026-05-06 02:39 30.08988 122.47630 5588 ft 264 kts 333°
2026-05-06 02:39 30.10581 122.46679 5411 ft 252 kts 333°
2026-05-06 02:39 30.12098 122.45773 5281 ft 238 kts 333°
2026-05-06 02:40 30.13419 122.44718 4993 ft 227 kts 308°
2026-05-06 02:40 30.14032 122.43116 4765 ft 214 kts 278°
2026-05-06 02:40 30.14065 122.41424 4529 ft 210 kts 264°
2026-05-06 02:40 30.13936 122.39759 4292 ft 205 kts 262°
2026-05-06 02:41 30.13804 122.38172 4010 ft 197 kts 262°
2026-05-06 02:41 30.13623 122.36647 3723 ft 186 kts 248°
2026-05-06 02:41 30.12938 122.35452 3383 ft 175 kts 219°
2026-05-06 02:41 30.11903 122.34860 3019 ft 164 kts 183°
2026-05-06 02:42 30.10767 122.34789 2781 ft 166 kts 181°
2026-05-06 02:42 30.09605 122.34745 2658 ft 168 kts 181°
2026-05-06 02:42 30.08444 122.34718 2493 ft 165 kts 177°
2026-05-06 02:42 30.07308 122.34788 2399 ft 163 kts 175°
2026-05-06 02:43 30.06164 122.34898 2288 ft 167 kts 174°
2026-05-06 02:43 30.05030 122.35014 2069 ft 161 kts 174°
2026-05-06 02:43 30.03939 122.35128 1841 ft 154 kts 174°
2026-05-06 02:43 30.02926 122.35234 1661 ft 143 kts 174°
2026-05-06 02:44 30.01944 122.35344 1495 ft 141 kts 174°
2026-05-06 02:44 30.00949 122.35445 1283 ft 145 kts 174°
2026-05-06 02:44 29.99942 122.35550 1061 ft 144 kts 174°
2026-05-06 02:44 29.98946 122.35654 862 ft 143 kts 174°
2026-05-06 02:45 29.97945 122.35757 688 ft 146 kts 174°
2026-05-06 02:45 29.96926 122.35864 516 ft 148 kts 174°
2026-05-06 02:45 29.95898 122.35973 324 ft 150 kts 174°
2026-05-06 02:45 29.94878 122.36075 110 ft 147 kts 175°
2026-05-06 02:46 29.93892 122.36176 17 ft 132 kts 175°
2026-05-06 02:46 29.93127 122.36253 12 ft 84 kts 175°
2026-05-06 02:46 29.92719 122.36294 15 ft 33 kts 174°
2026-05-06 02:46 29.92513 122.36316 15 ft 20 kts 175°
2026-05-06 02:47 29.92414 122.36326 15 ft 14 kts 175°
2026-05-06 02:47 29.92351 122.36329 14 ft 8 kts 188°
2026-05-06 02:47 29.92314 122.36284 15 ft 8 kts 255°
2026-05-06 02:47 29.92306 122.36211 13 ft 10 kts 263°
2026-05-06 02:48 29.92343 122.36151 13 ft 10 kts 340°
2026-05-06 02:48 29.92414 122.36144 13 ft 10 kts 356°
2026-05-06 02:48 29.92493 122.36137 13 ft 14 kts 354°
2026-05-06 02:48 29.92591 122.36125 13 ft 15 kts 354°
2026-05-06 02:49 29.92696 122.36114 13 ft 16 kts 354°
2026-05-06 02:49 29.92808 122.36102 13 ft 16 kts 355°
2026-05-06 02:49 29.92925 122.36091 13 ft 17 kts 355°
2026-05-06 02:49 29.93043 122.36079 13 ft 17 kts 354°
2026-05-06 02:50 29.93163 122.36066 13 ft 17 kts 355°
2026-05-06 02:50 29.93286 122.36053 14 ft 18 kts 355°
2026-05-06 02:50 29.93392 122.36042 13 ft 11 kts 354°
2026-05-06 02:50 29.93451 122.36002 13 ft 11 kts 287°
2026-05-06 02:51 29.93495 122.35942 13 ft 10 kts 342°
2026-05-06 02:51 29.93540 122.35885 13 ft 7 kts 305°
2026-05-06 02:51 29.93577 122.35850 13 ft 7 kts 356°
2026-05-06 02:51 29.93589 122.35853 13 ft 0 kts 10°